                ,  0.671,  0.819,  0.966,  1.114,  1.262,  1.410,  1.558,  1.705,  1.853,  2.001,  2.149,  2.297,  2.445,  2.592,  2.740,  2.888,  3.036,  3.184,  3.331,  3.479,  3.627,  3.775,  3.923,  4.070,  4.218,  4.366,  4.514,  4.662,  4.809,  4.957,  5.105,  5.253,  5.401,  5.549,  5.696,  5.844,  5.992,  6.140,  6.288,  6.435,  6.583,  6.731,  6.879,  7.027,  7.174,  7.322,  7.470,  7.618,  7.766,  7.914,  8.061,  8.209,  8.357,  8.505,  8.653,  8.800,  8.948,  9.096,  9.244,  9.392,  9.539,  9.687,  9.835
2005/07/06 00:00,  999.0,  -14.6,   -5.1,    3.1,    2.7,    2.3,    7.5,    8.2,   21.7,   20.3,   22.8,   23.3,  999.0,  999.0,  999.0,   16.9,  999.0,  999.0,  999.0,  999.0,  999.0,  999.0,  999.0,  999.0,   15.6,   15.4,  999.0,  999.0,  999.0,  999.0,  999.0,  999.0,  999.0,  999.0,  999.0,  999.0,  999.0,   24.2,  999.0,  999.0,  999.0,  999.0,  999.0,  999.0,  999.0,  999.0,  999.0,  999.0,  999.0,  999.0,  999.0,  999.0,  999.0,  999.0,  999.0,  999.0,  999.0,  999.0,  999.0,  999.0,  999.0,  999.0,  999.0
2005/07/06 00:10,  999.0,    0.8,    2.6,    2.4,    3.1,    2.4,    2.2,    3.1,    3.2,    4.2,    6.1,    6.9,    7.8,    9.0,    9.8,    8.5,   10.8,    9.4,   10.4,   13.6,   12.8,   11.3,   15.4,   16.2,   18.4,   19.2,   18.6,   18.8,   19.3,  999.0,  999.0,  999.0,  999.0,  999.0,  999.0,  999.0,  999.0,   24.0,   25.5,  999.0,  999.0,  999.0,  999.0,  999.0,  999.0,  999.0,  999.0,  999.0,  999.0,  999.0,   24.8,   26.2,   26.0,   26.4,   27.2,   27.4,   26.4,   25.7,  999.0,  999.0,  999.0,  999.0,  999.0
2005/07/06 00:20,  999.0,    0.3,    2.4,    2.2,    2.2,    2.6,    2.0,    2.9,    2.8,    3.3,    6.4,    8.0,    8.4,   10.2,   10.7,   10.9,   10.7,   10.3,   11.2,   12.5,   12.6,   15.3,   16.4,   17.4,   18.1,   18.0,   19.8,   20.6,  999.0,  999.0,  999.0,  999.0,  999.0,  999.0,  999.0,  999.0,  999.0,  999.0,   24.4,  999.0,  999.0,  999.0,  999.0,  999.0,   23.4,   22.7,   24.9,   25.4,   26.0,   26.3,   26.9,   26.3,   26.5,   26.7,   27.0,   27.0,   25.8,   25.1,   25.7,   26.3,   27.1,  999.0,  999.0
2005/07/06 00:30,  999.0,   -0.3,    0.8,    1.7,    2.0,    3.3,    3.2,    3.1,    2.9,    5.6,    7.7,    8.5,    9.6,   10.0,   10.9,   10.5,   10.9,   10.9,   10.7,   11.4,   11.8,   15.2,   16.1,   16.4,   16.7,   18.0,  999.0,  999.0,  999.0,  999.0,  999.0,  999.0,  999.0,  999.0,  999.0,  999.0,  999.0,  999.0,  999.0,  999.0,  999.0,  999.0,   24.3,   24.3,   24.4,   24.7,   25.4,   26.5,   27.0,   27.0,   26.2,   25.2,   25.7,   26.1,   26.5,   26.8,   26.0,   25.8,  999.0,  999.0,   26.8,   27.1,  999.0
2005/07/06 00:40,  999.0,   -0.2,    1.2,    1.5,    2.4,    3.1,    2.4,  999.0,  999.0,    5.3,    6.4,    7.7,    8.5,    9.7,   10.4,   10.6,   11.1,   10.7,   10.8,   11.1,   11.7,   13.9,   15.9,   16.0,   17.5,   19.0,  999.0,  999.0,  999.0,  999.0,  999.0,  999.0,  999.0,  999.0,  999.0,  999.0,  999.0,  999.0,  999.0,   23.7,   24.3,   24.3,   25.0,   24.7,  999.0,  999.0,  999.0,  999.0,   27.5,   27.2,   25.8,   25.1,   25.6,   26.0,   25.8,   25.6,   25.0,   25.5,   25.4,   25.6,   26.4,   27.0,   26.5
2005/07/06 00:50,  999.0,    0.6,    1.2,    1.6,    1.9,    2.3,    1.9,    2.2,    3.2,    5.9,    7.1,    7.8,    8.3,    9.7,   10.1,   10.2,   10.4,   10.3,   10.8,   11.2,   11.7,  999.0,   15.6,  999.0,  999.0,  999.0,  999.0,  999.0,  999.0,  999.0,  999.0,  999.0,   24.5,   23.2,   25.0,   26.7,   27.9,   26.9,   25.8,   24.9,   23.9,   23.4,   23.6,   24.1,   23.5,   24.1,   26.1,   26.4,   26.3,   26.2,   26.2,   26.3,   26.0,   25.8,   27.0,   27.4,   26.2,   26.0,   26.1,   26.9,  999.0,  999.0,   26.8
2005/07/06 01:00,  999.0,    0.9,    0.7,    2.0,    1.2,    1.6,    1.4,    1.8,    2.4,    6.2,    7.5,    8.1,    7.6,    8.7,    9.8,    9.6,   10.0,   10.1,    9.9,   10.5,   11.6,   14.3,  999.0,  999.0,  999.0,  999.0,  999.0,  999.0,  999.0,  999.0,   25.1,   25.6,   25.6,   24.2,   24.4,   25.5,   26.6,   25.7,   25.0,   24.6,   24.3,   24.5,   23.9,   23.3,   23.9,   25.6,   26.0,   26.1,   26.0,   25.6,   25.5,   25.7,   25.8,   26.0,   26.8,   27.8,   27.9,   26.9,   27.2,  999.0,  999.0,  999.0,  999.0
2005/07/06 01:10,  999.0,    0.5,    0.9,    1.6,    1.7,    2.1,    1.9,    1.9,    2.2,    6.0,    7.1,    8.0,    8.2,    9.7,   10.0,    9.9,    9.8,    9.9,    9.6,    9.9,   10.6,   12.9,   13.5,   14.2,   14.6,  999.0,   15.4,  999.0,  999.0,  999.0,  999.0,  999.0,  999.0,   23.8,   24.1,   24.3,   24.1,   23.3,   22.8,   23.6,   24.3,   24.6,   24.2,   24.3,   25.0,   25.4,  999.0,   25.0,   24.3,  999.0,  999.0,  999.0,  999.0,  999.0,  999.0,  999.0,  999.0,  999.0,  999.0,  999.0,  999.0,  999.0,  999.0
2005/07/06 01:20,  999.0,    1.6,    1.2,   -0.2,    1.0,    2.0,    2.0,    3.8,    3.6,    4.9,    7.1,    8.9,    8.5,   10.2,   10.8,   10.3,    9.9,   10.3,   11.1,   10.7,   10.9,   11.3,   11.9,   12.1,   12.6,   13.7,   15.7,   17.8,  999.0,  999.0,  999.0,  999.0,  999.0,  999.0,  999.0,   23.9,   23.5,   23.0,   21.6,   22.6,   23.8,   23.8,   23.8,   24.3,  999.0,   26.7,   26.2,   26.4,   25.5,   26.1,   26.3,   25.8,   26.4,   27.8,  999.0,  999.0,  999.0,  999.0,  999.0,  999.0,   28.5,   28.2,   28.3
2005/07/06 01:30,  999.0,    2.0,    1.7,  999.0,    1.1,    1.4,    6.7,    1.7,    3.7,    5.1,    6.3,    7.9,    9.6,    8.7,    8.0,    9.4,    9.5,   10.4,   10.2,   10.4,   11.0,   13.0,   12.8,  999.0,  999.0,   13.1,   14.8,   17.4,  999.0,  999.0,  999.0,  999.0,  999.0,  999.0,  999.0,  999.0,  999.0,  999.0,  999.0,  999.0,  999.0,   22.6,   23.6,   24.7,   25.2,   26.3,   26.7,   26.6,   26.2,   26.5,   26.5,   26.6,   26.0,   25.6,   26.1,   26.5,  999.0,  999.0,  999.0,   28.7,  999.0,   28.7,  999.0
2005/07/06 01:40,  999.0,    1.8,   -0.3,   -0.3,  999.0,    2.8,    4.7,    2.4,    2.3,    4.9,    6.9,    9.4,   13.2,   12.3,   12.2,   10.6,   11.6,   11.0,   10.7,   10.0,    9.9,   10.8,   12.3,  999.0,   14.2,   13.7,   15.0,  999.0,  999.0,  999.0,  999.0,  999.0,  999.0,  999.0,  999.0,  999.0,  999.0,  999.0,  999.0,   23.5,   23.3,   23.6,   23.9,   24.6,   25.6,   26.8,   26.7,   25.8,   25.9,   25.4,   25.5,   24.9,   25.0,  999.0,  999.0,  999.0,  999.0,  999.0,  999.0,  999.0,  999.0,  999.0,  999.0
2005/07/06 01:50,  999.0,    0.8,   -0.3,    0.1,    0.2,    0.7,    1.2,    1.1,    1.2,    3.8,    5.3,    8.6,    9.9,    9.5,   10.1,    9.6,    9.9,  999.0,  999.0,  999.0,  999.0,   11.3,   12.1,   13.9,   13.8,   13.5,   15.4,  999.0,  999.0,  999.0,  999.0,  999.0,  999.0,  999.0,  999.0,  999.0,  999.0,  999.0,   24.8,   24.8,  999.0,  999.0,   24.5,   24.8,   26.0,   26.7,   26.1,  999.0,  999.0,  999.0,  999.0,  999.0,  999.0,  999.0,  999.0,  999.0,  999.0,  999.0,  999.0,  999.0,  999.0,  999.0,  999.0
2005/07/06 02:00,  999.0,  999.0,   -0.4,    0.7,    0.4,   -0.1,    0.4,    0.4,    1.2,    2.9,    6.2,    8.5,    9.6,    9.0,    8.9,    8.8,    8.9,  999.0,  999.0,  999.0,   10.1,   11.0,   12.0,   11.9,   12.1,   12.9,   14.9,  999.0,  999.0,  999.0,  999.0,  999.0,  999.0,  999.0,  999.0,  999.0,   24.8,   25.1,   25.0,   25.6,   26.1,   24.7,   24.7,   24.6,   25.2,   26.3,   27.1,  999.0,  999.0,  999.0,  999.0,  999.0,  999.0,  999.0,  999.0,  999.0,  999.0,  999.0,  999.0,  999.0,  999.0,  999.0,  999.0
2005/07/06 02:10,  999.0,    0.4,   -0.1,    0.3,    0.7,    0.3,   -0.0,    0.2,    0.5,    1.2,    4.0,    7.7,    8.7,    8.8,    8.1,    7.7,    7.9,    7.1,    7.0,    7.5,   10.2,  999.0,   11.0,   11.9,   12.0,   12.9,   15.6,  999.0,  999.0,  999.0,  999.0,  999.0,   27.1,   26.8,   26.3,   25.9,   25.3,   24.8,   25.1,   25.7,   25.9,   25.4,   25.3,   25.9,   25.9,   25.6,   25.6,   26.5,   27.3,   28.0,  999.0,  999.0,  999.0,  999.0,  999.0,  999.0,  999.0,  999.0,  999.0,  999.0,  999.0,  999.0,  999.0
2005/07/06 02:20,  999.0,    0.1,    0.2,    0.1,    1.3,    1.3,    0.5,   -0.1,    0.4,    1.7,    4.5,    7.4,    8.6,    8.3,    7.7,    6.8,  999.0,    7.4,    6.4,    7.2,    9.1,    9.3,   10.5,   11.1,   11.8,   13.3,   15.7,  999.0,  999.0,  999.0,  999.0,  999.0,  999.0,   26.2,   26.5,   26.4,   26.1,   25.4,   24.6,   24.8,   25.4,   25.4,   25.0,   24.7,   24.8,   24.4,   24.4,   25.1,   26.0,  999.0,   25.8,   26.5,   25.9,   26.1,   26.4,   26.0,   26.0,   26.5,   26.4,  999.0,  999.0,  999.0,  999.0
2005/07/06 02:30,  999.0,    0.1,   -0.4,   -1.2,    0.6,    1.2,    0.5,    0.3,    0.7,    1.3,    2.3,    4.9,    7.0,    7.4,    6.4,    6.0,    5.9,  999.0,  999.0,  999.0,  999.0,  999.0,  999.0,  999.0,   14.3,   15.1,   16.7,  999.0,  999.0,  999.0,   29.1,   29.4,   28.9,   28.6,   27.4,   26.6,   26.0,   25.9,   26.2,   26.0,   26.2,   26.1,   25.8,   25.5,   25.5,   25.1,   24.7,   24.7,   25.6,   26.2,   25.8,   25.7,   25.3,   25.7,   26.6,   26.7,   27.3,   27.1,   27.4,  999.0,  999.0,  999.0,  999.0
2005/07/06 02:40,  999.0,    1.1,    1.4,    1.1,    1.3,    1.8,    1.2,    1.8,    1.3,    1.4,    1.8,  999.0,   -0.3,  999.0,  999.0,  999.0,   -3.6,  999.0,  999.0,    3.9,   -1.8,   -2.0,   -4.0,   -3.8,    2.5,    4.6,  999.0,  999.0,  999.0,  -14.2,    6.7,   -4.8,   -4.4,   -4.6,   -4.8,   -4.9,   -5.4,   -5.9,   -2.4,   -2.6,   -2.8,   -2.4,   -2.3,   -2.4,   -2.6,   -2.7,   -3.0,   -3.4,   -3.6,   -7.4,   -3.6,   -3.4,   -3.4,    4.1,  999.0,  999.0,  999.0,  999.0,  999.0,  999.0,  999.0,  999.0,  999.0
2005/07/06 02:50,  999.0,    0.9,    2.4,    2.2,    1.4,    1.3,    1.4,    1.4,    1.4,    1.7,    2.2,    1.6,    0.5,    0.3,    0.2,   -0.3,   -0.1,  999.0,   -0.2,   -0.1,   -0.3,   -0.8,  999.0,  999.0,  999.0,  999.0,  999.0,  999.0,  -12.2,  -13.8,  -14.6,  -15.2,  -15.6,  -15.9,  -16.0,  -15.9,  -15.5,  -15.6,  -15.8,  -16.0,  -16.0,  -16.2,  -16.7,  -17.3,  -18.8,  -18.5,  -18.9,  -18.9,  999.0,  999.0,  999.0,  999.0,  999.0,  999.0,  999.0,  999.0,  999.0,  999.0,  999.0,  999.0,  999.0,  999.0,  999.0
2005/07/06 03:00,  999.0,    1.2,    3.1,    3.1,    2.2,    1.0,    0.8,    0.5,    1.4,    1.5,    2.3,    1.8,    1.1,    0.2,   -0.2,    0.4,    0.3,    0.4,  999.0,  999.0,  999.0,   -8.1,  999.0,  999.0,  999.0,  999.0,  999.0,  -12.2,  -12.9,  -13.7,  -14.4,  -15.3,  -15.7,  -15.9,  -16.1,  -16.7,  -16.6,  -16.1,  -16.6,  -16.2,  -16.5,  -16.9,  -16.8,  -16.9,  -16.6,  -17.2,  -17.9,  -18.4,  -18.2,  -18.8,  999.0,  999.0,  999.0,  999.0,  999.0,  999.0,  999.0,  999.0,  999.0,  999.0,  999.0,  999.0,  999.0
2005/07/06 03:10,  999.0,    0.9,    2.9,    3.4,    2.4,    1.0,    0.8,    1.2,    0.7,    1.1,    1.9,    1.9,    1.7,    1.0,    0.5,    1.3,    0.7,    0.7,  999.0,  999.0,  -10.9,  -11.1,  999.0,  999.0,  999.0,  999.0,  999.0,  -11.3,  -12.3,  -13.8,  -15.7,  -16.0,  -16.4,  -16.7,  -16.3,  -16.2,  -16.2,  -16.2,  -16.3,  -16.3,  -16.6,  -16.9,  -16.4,  -16.9,  -17.8,  -17.2,  -18.1,  -18.9,  999.0,  999.0,  999.0,  999.0,  999.0,  999.0,  999.0,  999.0,  999.0,  999.0,  999.0,  999.0,  999.0,  999.0,  999.0
2005/07/06 03:20,  999.0,    0.8,    3.0,    3.4,    2.5,    1.1,    1.1,    1.2,    0.7,    1.3,    1.7,    2.3,    2.6,    1.7,  999.0,  999.0,  999.0,  999.0,  999.0,  999.0,  999.0,  -12.7,  -13.8,  999.0,  999.0,  999.0,  999.0,  -12.2,  -13.1,  -14.2,  -14.9,  -15.1,  -16.0,  -16.0,  -15.6,  -16.0,  -15.7,  -16.2,  -16.5,  -16.6,  -16.4,  -16.4,  -16.9,  -17.1,  -17.7,  -17.3,  -18.0,  -18.3,  999.0,  999.0,  999.0,  999.0,  999.0,  999.0,  999.0,  999.0,  999.0,  999.0,  999.0,  999.0,  999.0,  999.0,  999.0
2005/07/06 03:30,  999.0,    0.5,  999.0,    4.1,  999.0,    2.0,    1.6,    1.5,    1.3,    0.8,    1.2,    2.3,  999.0,    2.0,    1.5,    1.3,    0.9,    0.1,   -1.8,   -2.6,   -1.5,   -1.5,  999.0,  999.0,  999.0,   -7.6,  999.0,  999.0,  -12.5,  -14.3,  -14.8,  -15.6,  -16.4,  -16.6,  -16.3,  -15.7,  -16.0,  -15.8,  -16.3,  -16.6,  -16.8,  -16.8,  -17.0,  -17.3,  -17.2,  -17.6,  -17.7,  -18.7,  -19.0,  999.0,  999.0,  999.0,  999.0,  999.0,  999.0,  999.0,  999.0,  999.0,  999.0,  999.0,  999.0,  999.0,  999.0
2005/07/06 03:40,  999.0,  999.0,    3.0,    3.2,    3.1,    1.5,    1.2,    1.0,    0.7,    0.4,    1.4,    2.5,  999.0,    2.7,    1.9,    1.0,    0.5,   -0.4,   -2.5,   -2.2,   -1.9,   -2.0,   -2.5,   -3.4,   -4.1,   -7.0,  999.0,   -9.3,  -11.6,  -13.9,  -15.1,  -15.3,  -15.3,  -16.7,  -16.7,  -15.2,  -15.3,  -15.7,  -15.7,  -16.7,  -16.8,  -17.0,  -16.5,  -16.6,  -16.6,  -16.7,  999.0,  999.0,  999.0,  -19.1,  999.0,  999.0,  999.0,  999.0,  999.0,  999.0,  999.0,  999.0,  999.0,  999.0,  999.0,  999.0,  999.0
2005/07/06 03:50,  999.0,    0.9,    2.0,    3.1,    2.5,    1.0,    0.8,    0.5,    0.4,    0.6,    1.5,  999.0,  999.0,    3.2,  999.0,    0.4,   -0.6,   -1.2,   -2.1,   -2.3,   -2.6,   -3.3,   -3.7,   -4.0,  999.0,  999.0,   -7.5,  999.0,  999.0,  999.0,  999.0,  999.0,  999.0,  999.0,  999.0,  999.0,  999.0,  999.0,  999.0,  999.0,  999.0,  999.0,  999.0,  999.0,  999.0,  999.0,  999.0,  999.0,  999.0,  999.0,  -17.6,  -18.2,  -18.4,  -18.3,  -18.5,  -19.1,  -19.2,  -20.6,  -21.5,  999.0,  999.0,  999.0,  999.0
2005/07/06 04:00,  999.0,    1.1,    2.3,    3.0,    3.2,    1.7,    0.5,    0.4,    0.4,    1.1,    1.9,    2.7,    2.9,    2.4,    0.4,   -0.5,   -1.4,   -2.4,  999.0,  999.0,  999.0,  999.0,  999.0,   -4.8,   -5.6,   -6.2,   -7.7,   -9.8,  -12.2,  -13.7,  -14.2,  -14.1,  -14.8,  -15.2,  -15.3,  -15.2,  -15.6,  -15.7,  -15.5,  -15.5,  -15.8,  -16.4,  -16.5,  -16.1,  -16.1,  -16.2,  -16.5,  -16.8,  -17.3,  -17.6,  -18.1,  -18.6,  -18.8,  -19.4,  -18.9,  -19.6,  -19.9,  -20.4,  -21.1,  -21.3,  999.0,  999.0,  999.0
2005/07/06 04:10,  999.0,    1.6,    2.4,  999.0,    3.0,    1.8,    0.7,    0.4,   -0.3,    1.1,  999.0,  999.0,  999.0,    1.3,   -0.3,   -1.4,  999.0,  999.0,  999.0,  999.0,  999.0,  999.0,   -3.9,   -4.1,   -4.9,   -6.0,   -7.6,   -9.3,  -11.2,  -13.3,  -14.4,  -14.1,  -14.4,  -15.1,  -15.5,  -16.0,  -16.3,  -15.9,  -16.0,  -15.8,  -15.8,  -15.9,  -16.7,  -16.4,  -16.8,  -16.4,  -16.6,  -16.8,  -16.5,  -17.0,  999.0,  999.0,  999.0,  999.0,  999.0,  999.0,  999.0,  999.0,  999.0,  999.0,  999.0,  999.0,  999.0
2005/07/06 04:20,  999.0,    0.6,    2.2,    2.9,    3.1,    1.9,    0.5,   -0.1,    0.1,    1.6,    2.9,    2.1,    2.1,    0.3,   -0.9,   -1.7,   -2.1,   -2.4,   -2.7,   -1.4,   -2.8,   -3.4,   -3.8,   -4.5,   -5.6,   -6.7,   -8.0,   -9.0,  -10.3,  -12.6,  -14.3,  -13.9,  -14.3,  -15.0,  -15.4,  -15.8,  -15.9,  -15.8,  -15.7,  -15.9,  -16.0,  -16.1,  -16.3,  -16.5,  -16.7,  -16.9,  -16.9,  -17.1,  -17.2,  -17.3,  -17.9,  -17.6,  -18.2,  999.0,  999.0,  999.0,  999.0,  999.0,  999.0,  999.0,  999.0,  999.0,  999.0
2005/07/06 04:30,  999.0,    0.1,    0.9,    2.0,    2.9,    1.4,   -0.2,   -0.4,   -0.4,    1.8,    2.5,    1.9,    0.7,   -0.9,   -0.9,   -2.3,   -3.6,   -3.5,   -3.3,   -2.9,   -2.3,   -3.2,   -3.5,  999.0,   -6.6,   -7.8,   -8.0,   -8.0,   -9.9,  -12.4,  -14.0,  -14.0,  -14.6,  -15.4,  -15.7,  -16.0,  -15.8,  -15.8,  -16.0,  -16.2,  -16.0,  -16.0,  -16.1,  -16.9,  -17.0,  -17.0,  -17.0,  -17.4,  -17.4,  -17.2,  -17.9,  -18.1,  -18.6,  -19.3,  -19.5,  -19.7,  -19.6,  -20.1,  999.0,  999.0,  999.0,  999.0,  999.0
2005/07/06 04:40,  999.0,    0.2,    1.7,    2.2,    3.2,    1.8,    0.9,    0.3,    0.5,    1.5,    2.2,    2.8,    2.0,    0.3,   -0.7,   -2.1,   -3.0,   -2.9,   -2.1,   -2.2,   -1.9,   -1.6,   -1.3,   -2.8,   -5.4,   -6.1,   -7.4,   -9.2,  -11.1,  -12.8,  -13.9,  -14.3,  -14.7,  -15.9,  -16.0,  -16.1,  -16.3,  -16.2,  -16.3,  -16.2,  -16.4,  -16.6,  -17.0,  -17.0,  -16.9,  -16.6,  -16.9,  -17.1,  -17.6,  -17.7,  -18.1,  -18.2,  -18.8,  -19.3,  -19.6,  -19.9,  -20.3,  -20.9,  -21.9,  999.0,  999.0,  999.0,  999.0
2005/07/06 04:50,  999.0,    1.3,    1.9,    3.0,    3.8,    2.3,    2.0,    0.6,    1.3,    1.6,  999.0,    1.9,    0.4,   -0.3,   -0.3,   -1.2,   -1.8,   -2.0,   -1.5,   -1.3,   -1.0,    0.0,   -2.4,   -3.1,   -5.9,   -8.2,  999.0,  999.0,  -12.0,  -13.1,  -13.3,  -13.6,  -13.4,  -14.0,  -15.3,  -15.8,  -16.1,  -16.3,  -16.3,  -16.3,  -16.7,  -16.8,  -17.1,  -17.2,  -17.5,  -17.8,  -18.1,  -18.2,  -18.1,  -18.1,  -18.0,  -18.7,  -19.2,  -19.6,  -19.9,  999.0,  999.0,  999.0,  999.0,  999.0,  999.0,  999.0,  999.0
2005/07/06 05:00,  999.0,    0.9,    1.8,    2.2,    2.1,    2.1,    2.1,    1.9,    3.1,    3.5,    2.6,    2.1,    1.3,    0.8,   -0.6,   -1.0,   -0.4,   -0.3,   -1.3,   -0.8,   -0.9,   -1.5,   -2.6,   -4.7,   -6.3,   -8.2,  999.0,  999.0,  999.0,  -13.0,  -13.0,  -12.9,  -13.0,  -13.6,  -14.2,  -15.8,  -16.4,  -16.6,  -16.7,  -16.8,  -17.0,  -17.0,  -17.3,  -17.6,  -17.7,  -18.0,  -18.5,  -18.3,  -18.3,  -18.0,  -18.8,  -19.4,  -20.1,  -20.3,  -20.7,  999.0,  999.0,  999.0,  999.0,  999.0,  999.0,  999.0,  999.0
2005/07/06 05:10,  999.0,    0.6,    1.8,    2.9,    2.0,    2.4,    1.9,    2.1,    3.0,    3.1,    1.9,    1.4,    1.4,    0.5,   -0.9,   -0.3,   -1.0,   -1.0,   -1.0,   -1.8,   -1.7,   -3.6,   -5.5,   -6.8,   -7.9,  -10.0,  999.0,  999.0,  999.0,  -13.4,  -13.6,  -14.1,  -14.3,  -14.0,  -13.5,  -14.0,  -15.6,  -16.1,  -16.3,  -16.1,  -15.9,  -16.6,  -17.3,  -17.8,  -18.2,  -18.4,  -18.4,  -18.4,  -18.4,  -18.5,  -18.8,  -19.6,  -20.1,  -20.9,  -21.1,  -21.1,  -22.5,  999.0,  999.0,  999.0,  999.0,  999.0,  999.0
2005/07/06 05:20,  999.0,    0.9,    2.5,    2.6,    2.2,    2.9,    2.4,    2.7,    3.0,    2.7,    1.3,    1.0,    0.4,   -0.6,   -0.2,   -0.9,   -1.0,   -1.2,   -1.7,   -2.3,   -3.9,   -5.5,   -6.0,   -6.0,   -7.8,  -10.5,  -11.2,  -11.7,  -13.0,  -12.7,  -13.2,  -13.7,  -14.2,  -14.3,  -14.2,  -14.0,  -15.0,  -15.4,  -15.2,  -16.2,  -17.5,  -18.2,  -17.8,  -18.3,  -18.6,  -18.8,  -18.8,  -18.5,  -18.8,  -18.9,  -19.6,  -20.9,  -20.8,  -21.4,  -21.2,  999.0,  999.0,  999.0,  999.0,  999.0,  999.0,  999.0,  999.0
2005/07/06 05:30,  999.0,    0.1,    1.9,    2.7,    2.4,    2.4,    2.7,    2.3,    2.4,    1.8,    0.2,    1.3,    1.2,   -0.3,   -0.2,   -0.7,   -0.9,   -1.4,   -2.7,   -3.3,   -4.2,   -4.4,   -5.2,   -6.0,   -7.7,   -9.6,  999.0,  -11.8,  -12.3,  -13.2,  -13.7,  -13.2,  -12.6,  -12.4,  -12.7,  -13.1,  -13.7,  -14.3,  -15.6,  -17.2,  -18.0,  -18.4,  -18.7,  -18.9,  -19.1,  -19.1,  -19.2,  -19.0,  -19.3,  -19.5,  -20.1,  -21.0,  -21.7,  -22.1,  -22.3,  -21.2,  -21.4,  -22.0,  999.0,  999.0,  999.0,  999.0,  999.0
2005/07/06 05:40,  999.0,   -0.2,    1.6,  999.0,    2.5,    2.0,    2.6,    2.1,    2.8,    2.4,    1.2,    0.5,   -0.3,   -0.6,   -1.1,   -1.0,   -1.1,   -2.3,   -2.8,   -2.9,   -3.3,   -4.0,   -5.2,   -5.5,   -7.7,   -9.8,  999.0,  -11.7,  -12.1,  -12.7,  -12.7,  -12.2,  -11.9,  -11.9,  -12.2,  -12.2,  -12.9,  -15.0,  -16.7,  -18.0,  -18.8,  -19.0,  -19.3,  -19.7,  -19.6,  -19.8,  -19.5,  -19.5,  -19.8,  -19.7,  -20.3,  -21.4,  -21.7,  -22.1,  -21.7,  999.0,  999.0,  999.0,  999.0,  999.0,  999.0,  999.0,  999.0
2005/07/06 05:50,  999.0,    2.9,    2.6,    2.6,    2.4,    2.5,    2.3,    1.3,    3.6,    3.1,    2.1,    0.7,   -0.1,   -0.9,   -1.4,   -1.1,   -1.1,   -1.6,   -2.2,   -2.8,   -3.0,   -4.2,   -4.7,   -5.9,   -7.8,  -10.2,  -10.9,  -11.5,  -11.7,  -11.6,  -11.4,  -11.7,  -12.1,  -12.0,  -12.2,  -12.4,  -13.1,  -14.5,  -16.3,  -16.9,  -17.7,  -18.4,  -18.7,  -18.9,  -19.3,  -19.6,  -19.6,  -19.7,  -20.0,  -20.1,  -20.6,  -21.9,  -21.8,  -22.3,  -22.2,  -22.6,  999.0,  999.0,  999.0,  999.0,  999.0,  999.0,  999.0
2005/07/06 06:00,  999.0,    0.4,    1.2,    2.0,    1.8,    1.9,    1.2,    2.2,    2.4,    2.3,    1.0,    1.1,   -0.2,   -1.2,   -1.3,   -1.1,   -1.8,   -2.2,   -2.2,   -2.5,   -3.0,   -3.8,   -5.1,   -6.3,   -7.9,   -9.5,  999.0,  -10.8,  -10.9,  -10.9,  -11.1,  -11.5,  -12.2,  -12.7,  -13.2,  -13.6,  -13.8,  -14.6,  -15.3,  -16.4,  -17.8,  -18.3,  -18.7,  -18.8,  -19.2,  -19.3,  -19.5,  -19.3,  -19.5,  -20.0,  -21.1,  -21.2,  -20.7,  999.0,  999.0,  999.0,  999.0,  999.0,  999.0,  999.0,  999.0,  999.0,  999.0
2005/07/06 06:10,  999.0,    0.3,    0.9,    1.3,    1.7,    1.5,    2.4,    2.5,    2.9,    3.4,    1.1,    0.9,    0.6,   -0.9,   -1.3,   -1.7,   -1.7,   -1.1,   -1.3,   -1.4,   -2.1,   -3.3,   -4.8,   -6.2,   -7.4,  999.0,  999.0,  999.0,  -10.7,  -11.1,  -11.4,  -11.9,  -11.9,  -12.0,  -12.4,  -12.2,  -12.8,  -13.8,  -15.1,  -17.0,  -18.4,  -18.6,  -18.7,  -19.0,  -19.4,  -19.5,  -19.4,  -18.8,  -18.0,  999.0,  999.0,  999.0,  999.0,  999.0,  999.0,  999.0,  999.0,  999.0,  999.0,  999.0,  999.0,  999.0,  999.0
2005/07/06 06:20,  999.0,    0.5,    1.9,    1.6,    1.8,    1.6,    1.8,    2.3,    2.7,    2.5,    1.9,    1.1,    0.1,   -1.2,   -1.7,   -2.2,   -1.9,   -1.3,   -1.3,   -1.6,   -2.2,   -1.7,   -3.7,   -4.7,  999.0,  999.0,  999.0,  999.0,  999.0,  999.0,  -11.1,  -11.9,  -11.4,  -12.9,  -12.3,  -13.2,  -13.9,  -15.3,  -16.5,  -17.1,  -17.3,  -17.3,  -17.9,  -17.9,  -18.4,  -18.7,  -18.9,  -19.5,  -19.3,  999.0,  999.0,  999.0,  999.0,  999.0,  999.0,  999.0,  999.0,  999.0,  999.0,  999.0,  999.0,  999.0,  999.0
2005/07/06 06:30,  999.0,   -0.6,    1.3,    1.3,    2.0,    2.2,    1.8,    2.0,    2.1,    2.5,    1.5,    0.3,   -0.5,   -1.7,   -1.7,   -4.5,   -0.4,   -1.1,   -1.0,   -0.8,   -1.7,   -3.1,   -4.1,   -5.3,   -5.5,   -5.8,   -6.3,   -8.2,   -9.5,  -10.0,  -10.8,  -10.3,  -11.0,  -12.1,  -13.0,  -13.3,  -13.7,  -14.6,  -16.0,  -16.6,  -17.0,  -17.4,  -17.8,  -18.1,  -18.2,  -18.5,  -19.5,  -19.9,  -20.0,  999.0,  999.0,  999.0,  999.0,  999.0,  999.0,  999.0,  999.0,  999.0,  999.0,  999.0,  999.0,  999.0,  999.0
2005/07/06 06:40,  999.0,  999.0,    0.9,    1.3,    1.8,  999.0,    1.8,    1.2,    1.4,    2.1,    0.9,   -0.4,  999.0,  999.0,  999.0,   -1.1,   -1.4,   -1.5,   -1.6,   -1.4,   -2.0,   -2.1,   -2.8,   -4.3,   -4.7,   -4.7,   -6.0,   -7.6,   -8.6,   -9.1,   -9.4,   -9.5,  -10.6,  -11.3,  -11.9,  -12.0,  -12.7,  -13.6,  -15.1,  -16.8,  -17.5,  -17.9,  -18.3,  -18.2,  -18.6,  -18.9,  -19.2,  -20.1,  -19.3,  -19.0,  -20.5,  999.0,  999.0,  999.0,  999.0,  999.0,  999.0,  999.0,  999.0,  999.0,  999.0,  999.0,  999.0
2005/07/06 06:50,  999.0,   -0.3,   -0.2,    1.7,    1.1,    2.5,    1.8,    1.5,    2.0,    2.0,    0.5,  999.0,  999.0,  999.0,  999.0,   -1.2,   -1.1,   -1.0,   -1.2,   -2.4,   -2.7,   -3.7,  999.0,   -3.9,   -4.1,   -4.6,   -6.1,   -6.9,   -8.0,   -8.7,   -8.8,   -9.6,  -10.0,  -10.1,  -10.5,  -11.3,  -12.0,  -14.2,  -16.5,  -17.7,  -18.5,  -18.5,  -18.8,  -19.0,  -19.1,  -19.0,  -19.1,  -18.8,  -18.8,  -20.2,  -19.9,  -20.2,  -20.3,  999.0,  999.0,  -21.4,  -21.6,  -22.0,  999.0,  999.0,  999.0,  999.0,  999.0
2005/07/06 07:00,  999.0,   -0.4,    0.7,    1.8,    1.1,    1.8,    2.0,    1.1,    1.3,    2.3,    0.5,   -0.1,   -0.9,   -1.5,   -1.1,  999.0,  999.0,   -0.3,  999.0,  999.0,  999.0,  999.0,  999.0,  999.0,  999.0,   -1.4,   -3.9,   -5.3,   -6.4,   -6.6,   -7.0,   -7.6,   -8.4,   -9.1,   -9.8,  -10.7,  -11.9,  -13.6,  -15.4,  -17.0,  -17.4,  -18.1,  -18.3,  -18.9,  -18.6,  -19.1,  -19.3,  -19.5,  -20.1,  -20.9,  -20.4,  -20.5,  -20.7,  -21.1,  -21.6,  -22.0,  -22.0,  -22.1,  -22.0,  999.0,  999.0,  999.0,  999.0
2005/07/06 07:10,  999.0,   -0.4,    0.5,  999.0,    0.8,    1.3,    1.7,    1.3,    1.3,    2.3,    0.1,   -0.2,  999.0,   -0.9,   -1.4,   -1.2,  999.0,  999.0,  999.0,  999.0,  999.0,  999.0,  999.0,  999.0,  999.0,  999.0,   -3.6,   -5.5,   -5.4,   -4.8,   -6.2,   -7.8,   -8.7,   -9.4,  -10.4,  -10.7,  -12.1,  -14.0,  -15.5,  -16.8,  -17.5,  -18.0,  -18.4,  -18.9,  -19.0,  -19.1,  -19.8,  -20.4,  -20.6,  -21.2,  -20.8,  -21.3,  -21.2,  -21.3,  -21.8,  -21.7,  -22.2,  -22.8,  -22.9,  -23.3,  -23.4,  -23.3,  999.0
2005/07/06 07:20,  999.0,   -1.1,    0.5,    1.7,    1.3,    1.1,    1.7,    1.0,    1.0,    2.4,    0.3,   -0.4,  999.0,   -1.4,   -1.6,   -2.1,   -1.5,   -1.0,  999.0,  999.0,  999.0,  999.0,   -1.5,   -2.1,   -2.6,   -3.9,   -4.7,   -5.2,   -4.5,   -5.2,   -6.3,   -6.9,   -8.5,  -10.4,  -11.2,  -11.8,  -13.5,  -15.1,  -16.0,  -16.6,  -16.9,  -17.4,  -17.9,  -19.0,  -19.2,  -18.9,  -19.0,  -20.0,  -20.5,  -21.0,  -20.5,  -20.3,  -20.7,  -20.7,  -21.1,  -21.3,  -21.5,  -21.3,  -21.3,  -21.9,  -22.4,  -21.7,  -22.8
2005/07/06 07:30,  999.0,   -1.2,    0.1,    2.3,    0.8,    1.8,    1.9,    1.6,    1.0,    2.3,   -0.1,   -0.6,   -0.6,   -1.1,   -1.7,   -1.5,   -1.5,  999.0,  999.0,  999.0,  999.0,  999.0,   -1.1,   -1.7,   -1.6,   -2.4,   -3.3,   -3.9,   -3.8,   -5.0,   -4.0,   -5.8,   -9.0,  -11.2,  -11.4,  -12.0,  -13.7,  -15.6,  -16.3,  -16.6,  -17.2,  -17.7,  -17.9,  -18.2,  -18.5,  -18.9,  -19.3,  -20.0,  -20.2,  -20.2,  -21.2,  999.0,  -22.2,  999.0,  999.0,  999.0,  999.0,  999.0,  999.0,  999.0,  999.0,  999.0,  999.0
2005/07/06 07:40,  999.0,    1.2,   -1.3,    3.0,  999.0,    1.3,    1.6,    1.2,    1.1,    1.8,   -0.0,   -0.2,   -0.8,   -1.5,   -1.8,   -1.5,   -0.9,  999.0,  999.0,  999.0,  999.0,   -0.7,   -1.0,   -1.3,   -1.6,   -2.7,  999.0,  999.0,  999.0,  999.0,   -3.6,   -6.5,   -9.5,  -11.4,  -11.7,  -12.2,  -14.1,  -15.2,  -16.0,  -16.4,  -17.0,  -18.0,  -18.6,  -18.6,  -18.9,  -19.0,  -19.1,  -19.2,  -19.2,  -19.5,  -19.6,  -19.7,  -20.3,  -21.6,  -22.7,  -22.5,  -23.0,  -23.4,  -23.6,  999.0,  999.0,  999.0,  999.0
2005/07/06 07:50,  999.0,   -0.1,    0.6,    2.8,    1.8,    1.3,    1.8,    1.7,    0.9,    2.1,    0.1,   -0.8,   -1.4,   -1.5,   -1.8,   -1.2,  999.0,  999.0,   -0.8,  999.0,  999.0,   -1.2,   -1.2,   -1.3,   -1.9,   -2.9,  999.0,  999.0,  999.0,   -4.5,   -5.8,   -8.3,  -11.2,  -12.8,  -12.9,  -13.2,  -13.7,  -14.0,  -14.3,  -15.8,  -17.4,  -18.2,  -18.6,  -19.1,  -19.5,  -19.3,  -19.5,  -19.7,  -19.5,  -19.6,  -19.9,  -20.0,  -19.9,  -20.4,  -20.9,  -21.7,  -23.0,  999.0,  999.0,  999.0,  999.0,  999.0,  999.0
2005/07/06 08:00,  999.0,    0.3,   -1.0,    1.8,    1.6,    1.1,    1.7,    1.5,    1.3,    2.0,   -1.0,  999.0,   -1.1,   -1.2,   -1.5,   -1.0,   -0.8,  999.0,  999.0,  999.0,  999.0,  999.0,  999.0,   -1.6,   -2.4,   -3.0,  999.0,  999.0,   -1.9,  999.0,   -6.1,   -9.1,  -12.1,  -13.3,  -13.2,  -13.3,  -13.0,  -13.4,  -14.2,  -16.0,  -17.7,  -18.5,  -18.6,  -18.8,  -19.0,  -19.1,  -18.8,  -19.5,  -20.3,  -20.6,  -20.0,  -20.2,  999.0,  999.0,  999.0,  999.0,  999.0,  999.0,  999.0,  999.0,  999.0,  999.0,  999.0
2005/07/06 08:10,  999.0,   -1.2,   -0.4,    0.9,    1.6,    1.8,    2.1,    1.3,    1.2,    1.8,    0.0,   -0.9,   -1.1,   -1.5,   -1.9,   -1.6,  999.0,  999.0,  999.0,  999.0,  999.0,  999.0,  999.0,   -1.0,   -1.5,   -2.6,   -2.0,   -0.8,  999.0,  999.0,   -7.0,   -8.2,  -11.3,  -12.5,  -13.3,  -12.5,  -12.7,  -13.1,  -14.2,  -15.8,  -17.8,  -18.7,  -18.9,  -19.1,  -18.9,  -18.8,  -19.6,  -19.9,  -20.2,  -20.7,  -20.8,  999.0,  999.0,  999.0,  999.0,  999.0,  999.0,  999.0,  999.0,  999.0,  999.0,  999.0,  999.0
2005/07/06 08:20,  999.0,    0.0,   -0.2,    1.9,    1.1,    1.6,    1.7,    1.3,    0.8,    1.5,   -0.7,   -0.9,   -0.9,   -1.3,  999.0,  999.0,  999.0,  999.0,  999.0,  999.0,  999.0,  999.0,   -0.9,   -1.1,   -1.5,   -0.9,   -1.3,   -1.3,   -2.3,   -3.6,   -5.1,   -7.3,  -10.8,  -12.5,  -12.4,  -12.6,  -12.6,  -13.1,  -13.7,  -14.9,  -16.5,  -17.6,  -18.0,  -18.6,  -19.4,  -19.4,  -19.1,  -19.4,  -20.8,  -21.6,  999.0,  999.0,  999.0,  999.0,  999.0,  999.0,  999.0,  999.0,  999.0,  999.0,  999.0,  999.0,  999.0
2005/07/06 08:30,  999.0,    1.9,    1.3,    0.9,    1.5,    1.8,    2.0,    1.8,    1.0,    2.0,    0.4,   -1.0,   -1.0,   -1.1,   -1.3,  999.0,  999.0,   -0.8,  999.0,  999.0,  999.0,  999.0,   -0.7,   -1.2,   -1.5,   -1.1,   -1.8,   -2.2,   -1.9,   -2.4,   -4.4,   -6.7,   -9.7,  -12.1,  -12.0,  -12.3,  -12.5,  -13.4,  -14.2,  -14.1,  -14.9,  -16.3,  -17.2,  -18.1,  -18.8,  -18.5,  -18.9,  -19.1,  -19.7,  -20.5,  -21.9,  999.0,  999.0,  999.0,  999.0,  999.0,  999.0,  999.0,  999.0,  999.0,  999.0,  999.0,  999.0
2005/07/06 08:40,  999.0,   -0.5,    0.0,    2.2,    2.1,    1.5,    1.9,    2.2,    1.1,    1.7,   -0.4,  999.0,  999.0,   -1.8,   -2.1,   -1.7,  999.0,  999.0,  999.0,  999.0,  999.0,   -0.9,   -0.9,   -1.0,   -1.2,   -1.4,   -1.9,   -2.8,   -1.0,  999.0,   -4.3,   -5.7,   -9.0,  -11.4,  -12.1,  -12.5,  -12.4,  -12.9,  -14.0,  -13.5,  -13.9,  -14.9,  -16.2,  -17.1,  -17.9,  -17.9,  -18.0,  -18.7,  -19.3,  -20.0,  -20.8,  -21.5,  -21.7,  999.0,  999.0,  999.0,  999.0,  999.0,  999.0,  999.0,  999.0,  999.0,  999.0
2005/07/06 08:50,  999.0,   -0.7,    0.3,    1.8,    1.2,    1.2,    1.4,    2.1,    0.7,    0.9,   -0.4,   -1.1,   -1.8,   -1.3,   -2.1,  999.0,  999.0,  999.0,  999.0,  999.0,  999.0,   -1.1,   -0.9,   -1.7,   -1.8,   -1.4,   -2.5,   -3.0,   -2.7,   -2.3,   -3.3,   -5.2,   -7.9,  -10.8,  -11.9,  -12.0,  -12.2,  -12.4,  -13.6,  -14.1,  -13.7,  -14.2,  -15.7,  -16.7,  -17.2,  -17.5,  -18.0,  -18.6,  -19.1,  -19.8,  -20.6,  -21.6,  -22.6,  -23.7,  999.0,  999.0,  999.0,  999.0,  999.0,  999.0,  999.0,  999.0,  999.0
2005/07/06 09:00,  999.0,   -0.2,    0.1,    1.3,    0.7,    0.9,    1.3,   -0.3,    0.1,    0.6,   -0.7,   -1.2,   -1.0,   -1.4,  999.0,  999.0,  999.0,  999.0,  999.0,  999.0,  999.0,   -0.7,   -0.6,   -1.4,   -1.7,   -2.5,  999.0,   -2.4,  999.0,  999.0,   -3.1,   -5.6,   -8.5,  -11.2,  -11.8,  -12.0,  -12.2,  -12.7,  -14.3,  -14.3,  -14.3,  -14.8,  -15.4,  -16.1,  -16.7,  -17.5,  -18.2,  -18.8,  -18.8,  -19.7,  -20.4,  -21.7,  -22.1,  -23.3,  -23.3,  999.0,  999.0,  999.0,  999.0,  999.0,  999.0,  999.0,  999.0
2005/07/06 09:10,  999.0,    0.1,   -0.1,    1.1,    1.3,    1.6,    2.2,    0.9,    0.8,    0.2,   -1.2,   -1.4,   -1.2,   -1.3,  999.0,  999.0,  999.0,  999.0,  999.0,  999.0,  999.0,  999.0,   -1.0,   -1.4,   -1.6,   -2.0,  999.0,  999.0,  999.0,  999.0,   -2.5,  999.0,   -7.8,  -10.5,  -10.8,  -11.6,  -11.7,  -12.7,  -13.6,  -13.4,  -13.5,  -13.3,  -13.6,  -14.9,  -15.9,  -16.5,  -17.6,  -18.8,  -19.3,  -19.2,  -20.5,  -21.4,  -21.9,  -22.8,  -23.0,  999.0,  999.0,  999.0,  999.0,  999.0,  999.0,  999.0,  999.0
2005/07/06 09:20,  999.0,    0.2,    1.5,    0.9,    1.1,    2.0,    0.7,    0.2,    1.0,   -0.5,   -1.2,   -1.0,  999.0,   -1.5,  999.0,  999.0,  999.0,  999.0,  999.0,  999.0,  999.0,  999.0,  999.0,   -1.0,   -1.5,  999.0,   -2.6,  999.0,  999.0,  999.0,  999.0,   -5.0,   -8.0,   -9.9,  -10.6,  -11.5,  -12.4,  -12.9,  -13.0,  -13.3,  -13.0,  -12.9,  -13.8,  -15.5,  -16.2,  -16.8,  -17.7,  -19.1,  -20.2,  -21.3,  -21.6,  -21.8,  -22.8,  999.0,  999.0,  999.0,  999.0,  999.0,  999.0,  999.0,  999.0,  999.0,  999.0
2005/07/06 09:30,  999.0,   -0.9,    0.3,    1.5,    1.2,    2.2,    1.6,    0.8,    0.6,    1.3,   -0.9,   -0.9,  999.0,   -0.8,  999.0,  999.0,  999.0,  999.0,  999.0,  999.0,  999.0,  999.0,  999.0,  999.0,  999.0,  999.0,  999.0,  999.0,  999.0,  999.0,   -3.6,  999.0,   -6.2,   -8.9,  -10.6,  -11.7,  -11.9,  -10.7,  -11.6,  -11.0,  -11.5,  -12.6,  -13.7,  -16.0,  -16.1,  -16.7,  -17.8,  -19.1,  -20.2,  -21.0,  -21.1,  -21.3,  -21.9,  -22.8,  999.0,  999.0,  999.0,  999.0,  999.0,  999.0,  999.0,  -22.2,  -22.5
2005/07/06 09:40,  999.0,   -0.9,    1.1,    1.2,    1.7,    2.7,    0.9,    0.1,    0.6,    0.3,   -1.2,  999.0,  999.0,  999.0,   -1.5,  999.0,   -0.9,  999.0,  999.0,  999.0,  999.0,  999.0,  999.0,   -1.2,   -1.5,   -2.5,   -3.1,  999.0,  999.0,  999.0,   -4.5,   -4.6,   -6.9,   -9.4,  -10.0,   -9.7,  -10.7,  -12.1,  -12.3,  -12.1,  -12.0,  -12.6,  -13.8,  -14.3,  -15.1,  -16.6,  -18.0,  -18.9,  -20.0,  -21.2,  -22.5,  -22.5,  -22.5,  999.0,  999.0,  999.0,  999.0,  999.0,  999.0,  999.0,  999.0,  999.0,  999.0
2005/07/06 09:50,  999.0,  999.0,    0.9,    1.2,    1.8,    2.3,    1.0,    0.4,    0.8,    0.5,  999.0,  999.0,   -0.9,   -1.2,   -1.2,   -1.2,   -0.7,  999.0,  999.0,  999.0,  999.0,  999.0,   -1.3,   -1.4,   -2.0,  999.0,   -3.3,  999.0,  999.0,  999.0,   -4.6,   -5.7,   -5.4,   -8.5,   -8.6,   -8.6,  -10.6,  -12.5,  -13.0,  -12.7,  -12.1,  -12.7,  -13.3,  -14.1,  -15.8,  -17.2,  -18.1,  -18.9,  -19.9,  -20.9,  -21.9,  -22.6,  -21.7,  999.0,  999.0,  999.0,  -23.7,  -22.2,  -22.8,  -22.6,  -22.3,  -22.3,  -22.4
2005/07/06 10:00,  999.0,   -0.9,    0.0,    1.4,    1.6,    2.6,    1.0,    0.2,    0.8,    0.8,   -0.9,  999.0,  999.0,  999.0,   -1.4,   -1.1,   -1.1,  999.0,  999.0,  999.0,  999.0,   -0.9,   -1.3,   -1.3,   -1.8,   -2.4,  999.0,  999.0,  999.0,   -2.0,   -3.9,   -3.4,   -4.5,   -7.7,   -7.5,   -8.6,  -10.6,  -11.9,  -12.9,  -13.6,  -13.4,  -13.0,  -13.7,  -14.5,  -15.9,  -17.3,  -18.6,  -19.3,  -20.5,  -21.5,  -21.9,  -22.2,  -22.3,  -22.5,  -21.9,  -23.3,  -22.7,  -22.5,  -22.8,  -22.8,  -23.4,  -23.5,  -23.8
2005/07/06 10:10,  999.0,  999.0,    0.5,    0.9,    1.4,    1.9,    1.2,    0.6,    0.5,    0.3,   -1.4,  999.0,   -0.9,   -1.1,   -1.1,  999.0,  999.0,  999.0,  999.0,  999.0,  999.0,   -0.4,   -1.1,   -0.9,   -1.4,   -1.7,  999.0,  999.0,   -2.0,   -2.6,   -3.1,   -2.5,   -3.8,   -7.2,   -7.4,   -8.7,   -9.9,  -11.3,  -12.6,  -13.8,  -14.2,  -14.3,  -14.7,  -14.9,  -15.7,  -17.1,  -18.5,  -19.6,  -20.5,  -21.6,  -22.5,  -23.0,  -22.6,  -22.2,  -21.8,  -21.7,  -20.7,  -21.5,  -22.1,  -21.9,  -23.1,  -23.3,  -23.1
2005/07/06 10:20,  999.0,    0.1,   -0.2,    0.5,    1.4,    2.0,    1.4,    0.3,   -0.1,   -0.6,   -1.2,   -0.9,   -0.9,   -0.5,   -1.0,  999.0,  999.0,  999.0,  999.0,  999.0,  999.0,   -0.9,   -1.1,   -1.0,   -1.4,   -1.8,   -2.5,   -2.4,   -2.6,   -3.2,   -3.5,  999.0,   -5.3,  999.0,   -6.5,   -7.9,   -9.1,  -11.0,  -11.7,  -13.0,  -14.6,  -15.5,  -16.1,  -16.0,  -17.2,  -17.7,  -18.2,  -18.9,  -20.3,  -21.6,  -22.2,  -22.5,  -22.6,  -22.5,  -22.5,  -22.4,  -22.7,  -22.5,  -22.7,  -22.6,  -23.1,  -23.5,  -23.7
2005/07/06 10:30,  999.0,    0.3,   -0.8,    0.9,    0.8,    1.8,    1.5,    0.3,    0.1,    0.8,   -0.3,   -0.4,   -0.6,   -0.2,  999.0,  999.0,  999.0,  999.0,  999.0,  999.0,   -1.0,   -1.0,   -1.0,   -0.9,   -1.5,   -1.9,   -2.4,   -2.3,   -2.7,   -3.5,   -3.1,  999.0,  999.0,  999.0,  999.0,  999.0,   -8.6,  999.0,  -10.7,  -12.1,  -14.4,  -17.2,  -18.0,  -18.0,  -18.3,  -18.8,  -19.8,  -20.9,  -21.1,  -21.9,  -21.9,  -22.1,  999.0,  999.0,  999.0,  999.0,  -23.8,  -23.6,  -22.7,  -23.1,  -23.2,  -23.7,  -23.7
2005/07/06 10:40,  999.0,   -0.6,   -0.1,    1.2,  999.0,    1.2,  999.0,    0.1,    0.0,    0.3,   -0.4,  999.0,   -0.3,   -0.2,  999.0,  999.0,  999.0,  999.0,  999.0,  999.0,   -0.7,   -0.8,   -1.1,   -1.1,   -1.7,   -2.4,   -2.3,   -2.3,   -2.6,   -3.4,   -2.9,   -2.8,  999.0,  999.0,  999.0,  999.0,  999.0,   -8.2,   -9.8,  -12.8,  -14.8,  -17.6,  -19.2,  -18.8,  -18.3,  -18.6,  -19.0,  -20.3,  -21.7,  -22.3,  -21.9,  999.0,  999.0,  999.0,  999.0,  999.0,  -21.4,  -22.2,  -22.3,  -22.5,  -23.0,  -23.4,  -23.6
2005/07/06 10:50,  999.0,   -0.5,   -1.9,    0.7,    0.5,    1.0,    1.5,    0.4,   -0.3,    0.5,   -0.7,   -0.4,   -0.3,   -0.0,  999.0,  999.0,  999.0,  999.0,  999.0,  999.0,  999.0,   -1.1,  999.0,   -1.3,   -1.7,   -2.4,   -2.6,   -2.7,   -2.3,   -2.8,   -2.8,   -3.3,  999.0,   -4.5,   -4.8,  999.0,   -7.6,  999.0,  999.0,  999.0,  999.0,  -16.8,  -19.2,  -19.4,  -19.1,  -19.2,  -20.1,  -21.1,  -22.4,  -23.1,  -23.2,  -23.2,  -22.9,  -22.6,  -22.0,  -22.1,  -22.1,  -22.5,  -22.8,  -23.2,  -23.2,  -23.6,  -23.2
2005/07/06 11:00,  999.0,   -0.4,   -0.6,    0.1,    0.5,    1.1,    1.3,   -0.3,    0.1,    1.3,   -0.1,   -0.6,   -0.2,   -0.3,  999.0,   -0.9,  999.0,  999.0,  999.0,  999.0,  999.0,   -1.0,  999.0,   -1.8,  999.0,   -2.2,  999.0,   -3.1,  999.0,  999.0,  999.0,  999.0,  999.0,   -2.9,  999.0,  999.0,  999.0,  999.0,  999.0,  999.0,  999.0,  999.0,  -18.6,  -18.8,  -19.5,  -19.4,  -20.3,  -21.2,  -22.7,  -23.6,  -23.5,  -23.2,  -22.8,  -22.4,  -22.4,  -22.4,  -22.4,  -22.3,  -22.4,  -23.2,  -23.2,  -22.7,  -22.5
2005/07/06 11:10,  999.0,   -0.2,   -0.4,    0.4,    0.9,    0.6,    1.0,    0.6,    0.1,    0.2,   -0.1,   -0.2,    0.1,   -0.2,  999.0,  999.0,  999.0,  999.0,  999.0,  999.0,   -1.1,   -1.4,  999.0,   -1.5,  999.0,  999.0,   -2.4,   -2.9,   -2.7,  999.0,  999.0,  999.0,  999.0,  999.0,  999.0,  999.0,  999.0,  999.0,  999.0,  999.0,  -14.6,  -14.9,  -16.9,  -20.2,  -20.7,  -20.6,  -21.0,  -21.6,  -21.9,  -22.8,  -22.6,  -23.5,  -23.1,  -22.5,  -22.6,  -22.5,  -22.7,  -22.6,  -22.5,  -22.6,  -22.8,  -22.9,  -22.9
2005/07/06 11:20,  999.0,   -0.6,   -0.9,    0.2,    0.7,    0.6,    1.1,    1.0,    0.0,   -0.4,    0.5,   -0.2,   -0.1,   -0.5,   -0.4,  999.0,  999.0,  999.0,  999.0,  999.0,   -1.0,   -1.3,  999.0,  999.0,  999.0,  999.0,  999.0,   -3.3,   -3.2,  999.0,  999.0,  999.0,  999.0,  999.0,   -5.5,   -8.1,   -8.1,  999.0,  999.0,  -14.7,  -18.0,  -17.7,  -19.0,  -19.8,  -21.7,  -21.4,  -21.4,  -21.8,  -22.1,  -22.9,  -23.4,  -23.6,  -23.5,  -23.0,  -22.7,  -22.4,  -22.6,  -22.2,  -22.3,  -22.6,  -22.8,  -23.1,  -23.3
2005/07/06 11:30,  999.0,   -0.3,   -0.2,    0.3,    0.7,    0.7,    0.8,    0.0,   -0.3,    1.4,  999.0,  999.0,   -0.2,   -0.7,  999.0,  999.0,   -0.9,   -0.4,  999.0,   -1.1,   -0.8,   -1.5,   -1.3,   -2.2,   -2.6,   -3.2,   -3.0,   -3.1,   -3.0,   -2.6,  999.0,  999.0,  999.0,   -3.7,   -5.1,  999.0,  999.0,  999.0,  999.0,  999.0,  999.0,  999.0,  999.0,  -19.4,  -21.5,  -21.7,  -21.4,  -21.3,  -21.7,  -22.3,  -22.9,  -23.3,  -23.6,  -23.3,  -22.8,  -22.6,  -22.5,  -22.2,  -22.7,  -23.3,  -23.4,  -23.5,  -23.5
2005/07/06 11:40,  999.0,   -1.2,   -1.2,   -0.3,    1.0,    0.5,    0.5,    0.0,   -0.1,    1.3,   -0.2,   -0.1,   -0.7,  999.0,  999.0,  999.0,   -0.8,   -0.6,  999.0,  999.0,   -1.0,  999.0,  999.0,   -2.3,   -2.6,  999.0,  999.0,   -3.5,   -3.7,  999.0,  999.0,  999.0,   -2.2,  999.0,  999.0,  999.0,  999.0,  999.0,  999.0,  999.0,  999.0,  999.0,  999.0,  -19.3,  -20.9,  -21.3,  -21.7,  -21.3,  -21.1,  -21.8,  -22.8,  -22.7,  999.0,  999.0,  -22.3,  -22.7,  -23.1,  -22.7,  -23.4,  -23.4,  -24.0,  -24.2,  -23.7
2005/07/06 11:50,  999.0,   -0.4,   -0.2,   -0.1,    0.4,    0.7,    0.5,    0.8,   -0.2,    0.2,   -0.5,   -0.4,   -0.5,   -1.0,  999.0,   -0.6,   -1.0,   -0.6,  999.0,  999.0,   -1.0,   -1.4,   -2.0,   -2.5,   -2.4,   -3.0,   -3.1,   -3.4,   -3.2,  999.0,  999.0,   -3.1,   -2.3,   -3.6,  999.0,  999.0,  999.0,  999.0,  999.0,  999.0,  999.0,  999.0,  -18.2,  -19.1,  -20.8,  -21.7,  -21.6,  -21.5,  -21.6,  -22.2,  -21.9,  999.0,  999.0,  999.0,  999.0,  999.0,  -22.6,  -22.4,  -22.7,  -23.1,  -23.6,  -24.1,  -24.3
2005/07/06 12:00,  999.0,    0.2,   -0.3,   -0.1,    0.3,    1.7,    0.7,    0.3,   -0.3,    0.6,   -0.3,   -0.5,   -0.4,   -0.7,   -1.0,   -0.8,  999.0,  999.0,   -1.4,  999.0,  999.0,   -1.7,   -2.4,   -2.4,   -2.6,  999.0,  999.0,  999.0,  999.0,  999.0,  999.0,  -14.9,  999.0,  999.0,  999.0,  999.0,  999.0,  999.0,  999.0,  999.0,  999.0,  999.0,  -23.7,  -19.8,  -26.2,  -21.6,  -27.2,  999.0,  999.0,  999.0,  999.0,  999.0,  999.0,  999.0,  999.0,  999.0,  999.0,  999.0,  999.0,  999.0,  999.0,  -23.3,  -23.2
2005/07/06 12:10,  999.0,    2.0,   -0.1,   -0.1,    0.5,    0.8,    0.7,    0.2,    0.8,    1.5,    0.1,   -0.5,   -0.6,   -0.6,  999.0,   -1.0,  999.0,   -0.8,  999.0,  999.0,   -0.9,   -1.5,   -2.0,   -2.5,  999.0,  999.0,  999.0,  999.0,  999.0,  999.0,  999.0,  999.0,  999.0,  999.0,  999.0,  999.0,  999.0,  999.0,  999.0,  999.0,  999.0,  999.0,  999.0,  999.0,  999.0,  999.0,  999.0,  999.0,  999.0,  999.0,  999.0,  999.0,  999.0,  999.0,  999.0,  999.0,  999.0,  999.0,  999.0,  999.0,  999.0,  999.0,  999.0
2005/07/06 12:20,  999.0,   -0.2,   -0.1,    0.2,   -0.2,    0.2,    0.2,    0.6,   -0.4,    1.0,    0.0,   -0.3,   -0.6,   -0.2,   -1.2,   -0.2,   -0.4,   -1.1,   -0.7,   -1.2,   -0.3,   -1.5,  999.0,  999.0,  999.0,  999.0,  999.0,  999.0,  999.0,  999.0,  999.0,  999.0,  999.0,  999.0,  999.0,  999.0,  999.0,  -46.1,  -46.2,  -41.5,  999.0,  -55.3,  -55.3,  -55.4,  999.0,  -55.5,  -55.3,  999.0,  999.0,  999.0,  999.0,  999.0,  999.0,  -50.0,  999.0,  -55.5,  -55.4,  -55.6,  999.0,  999.0,  -55.5,  999.0,  999.0
2005/07/06 12:30,  999.0,   -0.1,    0.5,   -0.2,   -0.3,    1.0,   -0.1,   -0.5,   -0.4,    1.2,   -0.3,   -0.0,   -0.7,   -0.5,   -1.2,   -0.3,   -0.6,    0.4,   -0.7,   -0.4,   -0.4,  999.0,   -2.5,   -1.9,   -3.9,  999.0,  999.0,  999.0,  999.0,  999.0,  999.0,  999.0,  999.0,  999.0,  999.0,  999.0,  999.0,  999.0,  999.0,   -3.2,  999.0,  -37.0,  -41.4,  -41.3,  -48.4,  -48.5,  -48.5,  -50.8,  -46.3,  -41.6,  -41.4,  -30.0,  -38.5,  -46.2,  -42.6,  -48.5,  999.0,  -55.6,  -41.7,  -41.7,  -41.8,  -46.3,  -27.8
2005/07/06 12:40,  999.0,    0.6,    0.6,    0.6,    1.4,    2.2,    0.6,  999.0,    0.3,   -0.2,   -0.3,   -0.0,   -1.1,   -1.4,   -1.5,   -0.4,   -0.1,   -0.1,    0.1,    0.0,    0.1,   -3.1,    2.0,   -0.1,  999.0,   -0.0,  999.0,   -0.5,  999.0,    0.4,    0.3,  999.0,    0.6,  999.0,   -9.4,   -6.6,   -3.6,  -19.4,  -11.1,  -18.1,  -18.6,  999.0,  -17.4,  -17.4,  -19.5,  -23.0,  -25.3,  -17.9,  -38.8,  -22.2,  -33.3,  -33.3,  -48.6,  -48.5,  -38.8,  -46.2,  -37.0,  -41.6,  -46.3,  -27.9,  -27.7,  -46.3,  999.0
2005/07/06 12:50,  999.0,  999.0,   -0.3,    1.5,    2.0,   -0.1,   -1.4,   -0.2,   -0.3,  999.0,   -0.3,   -1.1,   -1.8,  999.0,  999.0,  999.0,    0.1,    0.1,    0.2,   -0.1,    0.2,   -2.1,  -10.3,  -14.0,   -2.9,  -13.6,  -14.4,  999.0,  -15.4,  999.0,  999.0,  -14.6,  999.0,  999.0,  999.0,   -4.7,  -13.6,  999.0,    0.2,   -4.5,  999.0,  -13.9,  -13.8,  -13.8,  -13.8,  999.0,  -17.3,  -10.4,  -20.8,   -9.3,  -13.9,  -20.8,   -6.9,  -41.5,  -36.9,  -41.5,  -46.3,  -41.5,  -32.4,  -41.6,  -41.7,  -27.8,  -34.4
2005/07/06 13:00,  999.0,  999.0,   -0.2,    0.0,    0.8,   -0.4,    1.6,    1.5,    2.9,  999.0,   -3.1,  999.0,  999.0,  999.0,   -0.8,   -0.7,  999.0,  999.0,  999.0,   -1.3,  999.0,   -2.6,   -3.6,  999.0,  999.0,  999.0,  -17.5,  999.0,  -27.0,  999.0,  999.0,  -13.7,  -27.4,  -13.8,   -0.6,  999.0,    0.0,    0.2,  -13.6,  -17.3,  -38.1,  -38.1,  -44.3,  -38.1,  -41.4,  -44.3,  -51.9,  -44.3,  -50.7,  -49.9,  -49.9,  -48.5,  -55.4,  -55.4,  -55.4,  -55.5,  -55.5,  -45.0,  -50.0,  -55.5,  -50.8,  -55.5,  -44.3
2005/07/06 13:10,  999.0,  999.0,   -0.6,   -0.0,    0.4,   -0.3,   -0.7,   -1.3,    1.2,    0.6,   -0.2,   -1.2,   -1.0,   -1.7,   -1.1,   -1.5,   -0.4,   -0.1,   -0.2,  999.0,   -0.1,   -0.4,   -0.3,  999.0,   -3.9,   -0.3,   -0.0,  999.0,  999.0,   -0.8,  999.0,  999.0,  999.0,  999.0,  999.0,  999.0,  999.0,  999.0,  999.0,  -37.2,  -37.2,  -27.9,  -34.6,  -32.3,  -27.9,  -31.3,  -32.3,  -32.3,  -32.6,  -34.6,  -34.6,  -34.5,  -34.6,  -27.7,  -23.1,  -27.7,  999.0,  -41.5,  -27.7,  -41.6,  -46.2,  -55.5,  -55.5
2005/07/06 13:20,  999.0,   -0.9,   -1.4,   -0.3,    0.7,    0.4,    0.3,   -0.1,  999.0,   -0.7,   -1.3,   -1.2,   -1.6,   -1.3,   -2.3,   -1.6,   -0.3,   -0.5,   -0.5,   -1.0,   -0.1,   -0.2,    0.0,   -0.7,   -3.9,   -3.3,   -0.1,   -0.7,   -1.1,   -0.1,   -0.4,   -0.3,   -0.7,   -0.8,   -0.7,   -0.3,  999.0,  999.0,  -13.1,  -19.2,  -13.6,  -22.5,  -10.2,  -10.7,  -16.6,  -22.8,  -13.9,  -14.0,  -14.7,  -28.5,  -14.7,  -14.2,  999.0,  -13.8,  -13.8,  -27.5,  -23.4,  -18.5,  -23.3,  -23.1,  -23.3,  -23.3,  -31.2
2005/07/06 13:30,  999.0,  999.0,   -1.6,   -0.5,   -0.4,   -1.8,   -2.0,   -0.7,   -0.4,   -1.6,    0.7,   -0.9,   -3.9,    0.4,   -2.0,   -1.9,    0.1,    0.0,    0.0,   -0.7,  999.0,  999.0,  999.0,   -3.1,  999.0,  999.0,  999.0,  999.0,  999.0,  -27.9,  -41.1,  999.0,  -42.2,  -32.2,  -36.9,  -41.4,  -37.9,  -37.9,  -38.0,  -34.5,  -37.9,  -37.0,  -32.2,  -38.0,  -44.3,  -44.2,  -44.3,  -41.5,  -44.3,  -41.5,  -44.3,  -55.4,  -44.3,  -47.1,  -41.6,  -47.2,  -47.1,  -44.4,  -44.5,  -44.4,  -44.4,  -37.0,  -41.7
2005/07/06 13:40,  999.0,  999.0,  999.0,   -0.6,    1.0,   -0.9,    1.1,    0.2,    1.0,   -0.4,   -0.7,   -1.4,   -2.0,   -1.5,   -2.2,   -0.6,    0.1,   -1.0,   -0.9,    0.2,   -0.6,   -2.2,   -2.6,   -2.0,   -2.8,   -1.6,  999.0,  999.0,  -18.7,  -18.7,  -14.0,  -14.4,  -10.7,  -17.4,   -9.2,  -22.9,   -9.3,  -20.8,  -28.0,  -27.6,  -27.6,  -18.2,  -31.0,  -36.9,  -36.8,  -36.8,  -36.9,  -27.4,  999.0,  999.0,   -7.0,  -18.8,  -18.8,  -14.0,   -7.0,   -8.8,  -14.1,  -23.7,  -35.6,  -35.6,  -35.9,  -35.8,  -35.2
2005/07/06 13:50,  999.0,  999.0,  999.0,   -0.2,    1.0,    0.2,   -0.6,    0.1,    0.2,    1.6,    1.3,  999.0,  999.0,   -2.4,  999.0,   -1.1,    0.4,   -0.7,    0.3,    0.9,   -0.4,   -0.8,   -1.8,   -0.5,   -1.3,   -0.7,  -13.3,  999.0,  -10.4,  -10.5,  -10.3,  -10.4,  -11.3,  -13.7,  -22.2,  -24.3,  -27.8,  -24.3,  -25.0,  -22.2,  -22.2,  -27.8,  -23.1,  -41.6,  -27.3,   -8.9,  -41.5,  -22.3,  -19.4,  -19.6,  -14.2,  -34.5,  -31.2,  -25.0,  -27.7,  -27.8,  -27.8,  -27.7,  -34.7,  -30.9,  -33.4,  -18.6,  -20.8
2005/07/06 14:00,  999.0,  999.0,   -0.1,    0.1,    0.4,   -1.0,  999.0,  999.0,  999.0,    0.2,    0.5,  999.0,  999.0,  999.0,  999.0,  999.0,   -0.1,   -0.1,   -0.4,    0.1,   -0.4,   -0.6,   -1.7,   -1.7,   10.4,   14.0,  999.0,  999.0,  -14.4,   -0.5,  999.0,   -0.7,   -9.2,    7.1,  -32.2,  -13.7,  -13.9,  -17.2,  -18.4,  -18.5,   -0.4,  -13.9,  -41.5,  -20.9,  -18.3,  -13.9,  -20.6,  -36.9,   -9.2,  -13.9,  999.0,  -27.5,  -41.1,  -13.8,  -13.6,  999.0,   -9.1,  -13.0,  999.0,  999.0,  -18.5,  999.0,  -51.0
2005/07/06 14:10,  999.0,   -0.4,  999.0,    0.1,    1.2,   -1.9,  999.0,   -1.5,    0.5,    0.4,  999.0,  999.0,  999.0,   -0.5,   -0.2,    0.3,   -0.1,    0.0,   -0.2,   -0.2,   -0.0,    0.1,   -2.5,  999.0,  999.0,  -28.6,  -27.8,  -31.1,  -28.3,  -27.8,  -28.6,  -27.7,  -27.7,  -28.4,  -23.1,  -18.6,  -17.4,  -19.4,  -13.8,  -19.3,  -14.0,   -8.2,  -10.5,   -7.0,   -3.6,  -13.9,  -10.4,   -3.6,  -14.0,   -3.6,   -7.1,  -10.4,  -14.0,    0.0,    0.0,    0.0,    0.0,    0.0,    0.0,   -0.1,    0.1,   -3.4,   -3.7
2005/07/06 14:20,  999.0,  999.0,   -0.5,   -0.5,   -0.2,   -0.6,   -0.6,   -0.3,    2.9,   -0.4,  999.0,  999.0,  999.0,   -2.3,   -1.7,  999.0,  999.0,  999.0,  999.0,  999.0,  999.0,  999.0,  999.0,  999.0,   24.1,  999.0,  999.0,    6.9,   13.6,  -14.1,  999.0,   13.8,   27.8,    0.5,   -8.1,  999.0,  -41.4,   -0.1,   -6.9,   -0.2,   23.1,  -18.4,   13.8,   23.0,    6.8,  -27.7,   -0.1,    9.6,   -8.7,    9.3,   -3.1,   -7.3,   13.7,    9.3,   -9.1,  -13.7,   -9.2,  -27.7,  999.0,   -4.6,  999.0,   14.0,   -0.0
2005/07/06 14:30,  999.0,    0.4,   -0.1,   -0.5,   -0.8,    0.7,   -0.1,    1.3,  999.0,  999.0,  999.0,  999.0,  999.0,  999.0,   -3.1,   -3.2,  999.0,  999.0,  999.0,  999.0,  999.0,  999.0,  999.0,  999.0,  999.0,  999.0,  -27.8,  999.0,  -18.5,  999.0,  -27.7,  999.0,  -27.6,  -55.2,  -20.8,  -46.1,  -55.3,  -27.7,  -16.6,  -13.9,  -27.7,  -36.8,  -22.2,  -16.6,  -20.8,  -27.8,  -20.8,  -22.2,  -27.6,  -20.8,  -27.7,  -16.6,  -22.1,  -22.2,  -27.7,  -30.5,  -45.0,  -41.6,  -45.1,   -4.6,  -18.8,  -20.9,  -27.8
2005/07/06 14:40,  999.0,    1.4,   -0.6,   -1.3,   -0.7,   -2.5,   -1.2,    2.4,   -0.3,   -0.5,   -2.4,   -2.0,   -2.5,   -2.1,  999.0,  999.0,  999.0,  999.0,  999.0,  999.0,  999.0,  999.0,  999.0,  999.0,  999.0,  999.0,  999.0,  -55.4,  999.0,  999.0,  999.0,  -55.3,  999.0,  999.0,  999.0,  -46.2,  -45.9,  -31.0,  -23.1,  -18.4,  -31.2,  -23.0,  -31.1,  -31.1,  -18.4,  -27.6,  -31.2,  -18.5,  -27.7,  -23.2,   -0.1,  -31.3,  -23.1,  -37.0,  -27.5,  -13.8,  -31.2,  -31.3,  -34.7,  -27.7,   -6.9,  -23.2,  -23.1
2005/07/06 14:50,  999.0,    0.4,    0.1,    0.3,   -0.2,   -1.2,   -0.7,   -0.2,    0.1,   -1.3,   -2.4,   -2.8,   -0.9,   -1.4,   -1.5,   -1.5,    0.0,  999.0,  999.0,    0.5,  999.0,  999.0,  999.0,  999.0,  999.0,  999.0,  999.0,  999.0,  999.0,  999.0,  999.0,  999.0,  -13.8,  999.0,  -27.6,  999.0,    9.2,  -13.8,  -13.8,  -27.7,  -22.1,  -20.7,  -16.6,  -22.0,  -18.6,    0.1,   -6.8,  -27.7,   -6.9,  -18.4,  999.0,  999.0,  -13.8,  999.0,  -13.9,  -13.9,  -27.7,  -13.9,  999.0,  999.0,  -13.8,  -13.8,  -13.8
2005/07/06 15:00,  999.0,   -0.1,    0.4,    1.3,   -0.1,   -1.3,   -0.4,    0.4,   -0.3,   -0.4,   -0.7,   -1.4,   -2.0,   -1.8,   -1.7,   -0.3,   -0.4,    0.3,   -0.1,   -0.2,   -0.1,    0.2,   -0.6,  999.0,  999.0,    0.8,   -0.1,    0.3,    6.8,    6.8,   13.2,    8.9,   13.4,  999.0,   -8.8,  -13.7,  -18.4,  -18.6,  -27.6,  -13.6,  -27.7,  -27.6,  -34.6,  -31.1,  -27.5,  -27.5,  -37.0,  -23.1,  -34.5,  -41.5,  -13.7,  -32.2,    0.1,   -0.1,   -0.1,   13.8,   -6.9,  -13.9,   -9.2,    8.3,   -0.0,  -10.3,    0.0
2005/07/06 15:10,  999.0,  999.0,  999.0,    0.3,    0.5,   -1.2,   -1.5,   -0.7,   -0.6,   -0.4,  999.0,   -0.5,   -1.8,   -2.2,   -2.1,   -0.9,    0.4,    0.2,    0.3,    0.0,    0.1,    0.1,   -1.0,  999.0,  999.0,   -1.1,    0.0,    0.3,   -0.1,  999.0,  999.0,  999.0,  999.0,  -27.6,  -27.5,  -27.4,  -27.5,  -27.4,  -27.5,  -27.4,  -27.3,  -27.6,  -27.5,  -27.5,  -27.6,  -27.6,  -27.5,  999.0,  999.0,  -27.1,  999.0,  999.0,  999.0,    0.1,    0.1,    0.1,    0.1,  999.0,   -0.0,    0.0,    0.2,   -0.0,    0.1
2005/07/06 15:20,  999.0,  999.0,   -1.3,   -0.4,    0.1,   -1.7,   -1.2,   -0.7,   -1.0,   -0.7,   -0.6,   -0.4,   -0.1,   -1.3,   -1.4,   -2.2,   -1.2,   -0.3,   -0.3,   -0.2,   -0.3,   -0.1,   -2.6,   -4.5,  999.0,   -1.1,   -0.4,   -0.6,   -0.8,   13.1,  999.0,  999.0,  999.0,  -28.0,  -27.8,  -27.6,  -27.6,  -27.7,  -28.1,  -27.7,  -28.2,  -27.7,  -27.5,  -27.4,  -27.5,  -27.7,  999.0,  999.0,  999.0,  999.0,  999.0,  999.0,    0.2,   -0.1,    0.0,    0.1,   -0.1,    0.1,   -0.1,   -0.1,   -0.1,    0.1,    0.0
2005/07/06 15:30,  999.0,   -1.2,   -0.9,   -0.3,   -0.1,   -2.1,   -2.0,   -1.7,   -1.1,   -2.6,   -1.5,   -2.2,   -1.4,   -1.0,   -2.0,   -1.8,  999.0,  999.0,  999.0,  999.0,  999.0,  999.0,  999.0,   -4.6,  999.0,  999.0,  999.0,  999.0,  999.0,  999.0,  999.0,  999.0,  999.0,  999.0,  999.0,  999.0,  999.0,  999.0,  999.0,  999.0,  999.0,  999.0,  999.0,  999.0,  -55.4,  999.0,  -55.2,  -55.5,  999.0,  -55.2,  999.0,  -27.7,  999.0,  -27.6,  -25.9,  999.0,  999.0,   -0.1,  -27.6,  -34.6,   -6.9,   -9.1,    0.0
2005/07/06 15:40,  999.0,   -0.4,   -2.5,   -1.4,   -2.1,   -3.7,   -1.8,   -1.3,   -1.6,   -1.5,   -1.3,   -1.3,   -1.0,   -1.2,   -1.8,   -1.7,  999.0,   -2.1,  999.0,   -2.5,  999.0,  999.0,  999.0,  999.0,  999.0,  999.0,  999.0,  999.0,  999.0,  999.0,  999.0,  999.0,  999.0,  999.0,  999.0,  -55.3,  -55.3,  999.0,  -55.3,  999.0,  999.0,  -55.2,  -55.3,  -55.3,  999.0,  -55.3,  999.0,  999.0,  -55.3,  -55.4,  999.0,  999.0,  999.0,  999.0,  999.0,  999.0,  999.0,  -13.8,  -13.7,  -14.7,  999.0,  999.0,  999.0
2005/07/06 15:50,  999.0,  999.0,  999.0,   -1.6,   -1.8,   -2.4,   -1.3,   -1.2,   -0.4,   -2.0,   -1.6,   -1.3,   -1.2,   -1.4,   -1.6,  999.0,   -3.0,   -2.4,   -2.1,  999.0,  999.0,  999.0,  999.0,  999.0,  999.0,  999.0,  999.0,  999.0,  999.0,  999.0,  999.0,  999.0,  999.0,  -55.1,  999.0,  999.0,  999.0,  999.0,  -55.4,  -55.1,  -55.3,  999.0,  -55.2,  999.0,  -55.3,  -55.4,  -55.2,  -55.2,  999.0,  -55.3,  -55.4,  999.0,  -55.3,  999.0,  -55.3,  999.0,  -55.3,  999.0,  999.0,  999.0,  999.0,  999.0,  -55.4
2005/07/06 16:00,  999.0,   -1.5,   -2.1,   -2.1,   -1.7,   -1.2,   -1.6,   -1.9,   -1.2,   -1.9,   -1.9,   -1.3,   -1.2,   -1.3,   -1.5,   -1.6,   -2.8,  999.0,  999.0,  999.0,  999.0,  999.0,  999.0,  999.0,  999.0,  999.0,  999.0,  999.0,  999.0,  999.0,  999.0,  999.0,  999.0,  999.0,  999.0,  999.0,  -55.2,  999.0,  999.0,  -55.0,  999.0,  -55.3,  -55.2,  999.0,  -55.3,  999.0,  -55.3,  -55.3,  999.0,  -55.3,  -55.4,  -55.3,  -55.2,  -55.3,  -55.3,  -55.3,  999.0,  -55.3,  999.0,  -55.3,  -55.4,  999.0,  -55.3
2005/07/06 16:10,  999.0,  999.0,   -1.4,   -0.6,   -0.2,   -1.3,   -1.3,   -1.1,   -0.9,   -0.3,   -1.0,   -1.3,   -0.7,   -1.0,  999.0,   -1.3,   -2.5,  999.0,   -2.6,  999.0,  999.0,  999.0,  999.0,  999.0,  999.0,  999.0,  999.0,  999.0,  999.0,  999.0,  999.0,  999.0,  999.0,  999.0,  999.0,  999.0,  999.0,  999.0,  999.0,  999.0,  999.0,  999.0,  999.0,  999.0,  999.0,  999.0,  999.0,  999.0,  999.0,  999.0,  999.0,  999.0,  999.0,  999.0,  999.0,  999.0,  999.0,  999.0,  999.0,  999.0,  999.0,  999.0,  999.0
2005/07/06 16:20,  999.0,   -1.8,   -2.4,   -1.2,   -0.8,   -1.0,   -1.0,   -0.7,    0.2,   -0.9,   -1.1,   -1.9,   -2.0,   -1.3,   -1.1,   -2.4,   -2.6,  999.0,   -1.4,   -2.9,   -4.2,  999.0,  999.0,  999.0,  999.0,  999.0,  999.0,  999.0,  999.0,  999.0,  999.0,  999.0,  999.0,  999.0,  999.0,  999.0,  999.0,  999.0,  999.0,  999.0,  -55.0,  999.0,  -55.2,  999.0,  999.0,  999.0,  999.0,  999.0,  999.0,  999.0,  999.0,  999.0,  999.0,  999.0,  999.0,  999.0,  999.0,  999.0,  999.0,  999.0,  999.0,  999.0,  999.0
2005/07/06 16:30,  999.0,   -1.7,   -0.7,   -1.1,   -1.0,   -1.1,   -0.8,    0.0,   -1.0,   -0.9,   -1.3,   -1.3,   -1.7,   -1.3,   -0.8,   -2.0,   -2.7,   -2.0,   -1.7,   -1.7,   -2.8,   -2.0,   -3.0,   -4.1,  999.0,  999.0,  999.0,  999.0,  999.0,  999.0,  999.0,  999.0,  999.0,  999.0,  999.0,  999.0,  999.0,  999.0,  999.0,  999.0,  -27.6,  999.0,  999.0,  999.0,  999.0,  -28.0,  999.0,  999.0,  999.0,  999.0,  999.0,  999.0,   -0.1,  999.0,  999.0,  999.0,   -0.4,  999.0,  999.0,  999.0,  999.0,  999.0,  999.0
2005/07/06 16:40,  999.0,  999.0,   -1.4,   -0.7,   -0.4,   -1.2,   -0.4,   -0.1,   -1.6,   -2.2,   -1.7,   -2.2,   -2.7,  999.0,  999.0,   -2.0,   -1.4,   -0.9,   -1.0,   -1.2,  999.0,   -4.0,   -3.8,  999.0,  999.0,  999.0,  999.0,  999.0,  999.0,  999.0,  999.0,  999.0,  999.0,  999.0,  999.0,  999.0,  999.0,  999.0,  999.0,  999.0,  999.0,  999.0,  999.0,  999.0,  999.0,  999.0,  999.0,  999.0,  999.0,  999.0,  999.0,  999.0,  999.0,  999.0,  999.0,  999.0,  999.0,  999.0,  999.0,  999.0,  999.0,  999.0,  999.0
2005/07/06 16:50,  999.0,   -0.9,   -0.9,   -1.2,   -1.0,   -1.4,   -1.3,   -0.8,   -0.7,   -1.6,   -1.2,   -1.4,   -1.1,   -1.0,   -0.5,   -1.4,   -1.5,   -1.5,  999.0,   -3.3,   -3.2,   -3.7,   -3.9,   -4.2,  999.0,  999.0,  999.0,  999.0,  999.0,  999.0,  999.0,  999.0,  999.0,  999.0,  999.0,  999.0,  999.0,  999.0,  999.0,  999.0,  999.0,  999.0,  999.0,  999.0,  999.0,  999.0,  999.0,  999.0,  999.0,  999.0,  999.0,  999.0,  999.0,  999.0,  999.0,  999.0,  999.0,  999.0,  999.0,  999.0,  999.0,  999.0,  999.0
2005/07/06 17:00,  999.0,   -1.6,   -2.0,   -1.6,   -1.7,   -1.3,   -0.8,   -0.8,    0.1,   -1.1,   -1.2,   -1.1,   -2.2,   -0.3,   -0.1,   -1.6,   -1.1,   -1.5,  999.0,   -3.8,   -3.8,   -4.3,   -4.9,   -5.2,  999.0,  999.0,  999.0,  999.0,  999.0,  999.0,  999.0,  999.0,  999.0,  999.0,  999.0,  999.0,  999.0,  999.0,  999.0,  999.0,  999.0,  999.0,  999.0,  999.0,  999.0,  999.0,  999.0,  999.0,  999.0,  999.0,  999.0,  999.0,  999.0,  999.0,  999.0,  999.0,  999.0,  999.0,  999.0,  999.0,  999.0,  999.0,  999.0
2005/07/06 17:10,  999.0,   -1.5,   -2.0,   -2.1,   -2.2,   -1.5,   -0.9,   -0.5,    0.1,   -0.0,   -1.3,   -0.2,   -0.3,   -0.7,   -0.9,   -1.0,   -2.1,   -1.5,   -2.5,   -3.6,   -3.8,   -3.8,   -4.2,   -4.8,   -4.8,  999.0,  999.0,  999.0,  999.0,  999.0,  999.0,  999.0,  999.0,  999.0,  999.0,  999.0,  999.0,  999.0,  999.0,  999.0,  999.0,  999.0,  999.0,  999.0,  999.0,  999.0,  999.0,  999.0,  999.0,  999.0,  999.0,  999.0,  999.0,  999.0,  999.0,  999.0,  999.0,  999.0,  999.0,  999.0,  999.0,  999.0,  999.0
2005/07/06 17:20,  999.0,   -1.1,   -2.1,   -2.5,   -1.6,   -1.1,   -0.3,  999.0,    0.8,   -0.5,   -1.4,   -0.8,   -0.4,   -0.4,   -1.0,   -0.3,   -0.6,   -0.6,   -1.5,   -3.0,   -3.3,   -3.6,   -4.0,   -5.0,   -5.0,  999.0,  999.0,  999.0,  999.0,  999.0,  999.0,  999.0,  999.0,  999.0,  999.0,  999.0,  999.0,  999.0,  999.0,  999.0,  999.0,  999.0,  999.0,  999.0,  999.0,  999.0,  999.0,  999.0,  999.0,  999.0,  999.0,  999.0,  999.0,  999.0,  999.0,  999.0,  999.0,  999.0,  999.0,  999.0,  999.0,  999.0,  999.0
2005/07/06 17:30,  999.0,   -1.5,   -2.4,   -2.9,   -2.7,   -1.7,   -0.4,   -0.6,   -1.4,   -1.5,   -1.1,  999.0,  999.0,   -1.3,   -1.2,   -1.1,  999.0,   -1.1,   -2.4,   -3.3,   -3.7,   -3.8,   -4.0,   -4.4,  999.0,  999.0,  999.0,  999.0,  999.0,  999.0,  999.0,  999.0,  999.0,  999.0,  999.0,  999.0,  999.0,  999.0,  999.0,  999.0,  999.0,  999.0,  999.0,  999.0,  999.0,  999.0,  999.0,  999.0,  999.0,  999.0,  999.0,  999.0,  999.0,  999.0,  999.0,  999.0,  999.0,  999.0,  999.0,  999.0,  999.0,  999.0,  999.0
2005/07/06 17:40,  999.0,   -1.5,   -2.3,   -3.3,   -2.2,   -0.8,    0.8,   -0.2,   -0.4,   -0.9,   -0.9,   -1.2,   -1.4,  999.0,   -0.7,   -0.3,    0.2,   -0.6,   -1.7,   -3.9,   -4.0,   -3.8,   -4.5,   -4.4,  999.0,  999.0,  999.0,  999.0,  999.0,  999.0,  999.0,  999.0,  999.0,  999.0,  999.0,  999.0,  999.0,  999.0,  999.0,  999.0,  999.0,  999.0,  999.0,  999.0,  999.0,  999.0,  999.0,  999.0,  999.0,  999.0,  999.0,  999.0,  999.0,  999.0,  999.0,  999.0,  999.0,  999.0,  999.0,  999.0,  999.0,  999.0,  999.0
2005/07/06 17:50,  999.0,   -1.9,   -2.4,   -2.5,   -1.2,    0.5,    0.1,   -0.4,   -1.2,   -1.0,   -1.0,   -1.0,   -1.5,   -0.3,    0.3,    0.3,   -0.4,   -1.2,   -2.5,   -3.8,   -3.9,   -4.0,   -4.2,  999.0,  999.0,  999.0,  999.0,  999.0,  999.0,  999.0,  999.0,  999.0,  999.0,  999.0,  999.0,  999.0,  999.0,  999.0,  999.0,  999.0,  999.0,  999.0,  999.0,  999.0,  999.0,  999.0,  999.0,  999.0,  999.0,  999.0,  999.0,  999.0,  999.0,  999.0,  999.0,  999.0,  999.0,  999.0,  999.0,  999.0,  999.0,  999.0,  999.0
2005/07/06 18:00,  999.0,   -1.8,   -2.9,   -2.8,   -1.1,   -0.2,   -1.2,   -1.6,   -1.0,   -0.7,   -1.3,   -0.9,    0.0,    0.6,    0.9,    0.8,   -0.5,   -1.3,   -2.4,   -4.1,   -4.2,   -3.9,  999.0,   -5.1,  999.0,  999.0,  999.0,  999.0,  999.0,  999.0,  999.0,  999.0,  999.0,  999.0,  999.0,  999.0,  999.0,  999.0,  999.0,  999.0,  999.0,  999.0,  999.0,  999.0,  999.0,  999.0,  999.0,  999.0,  999.0,  999.0,  999.0,  999.0,  999.0,  999.0,  999.0,  999.0,  999.0,  999.0,  999.0,  999.0,  999.0,  999.0,  999.0
2005/07/06 18:10,  999.0,   -1.8,   -2.6,   -2.6,   -2.0,    0.3,    1.2,    0.3,   -0.2,   -0.5,   -0.4,   -0.5,    0.1,    0.6,    0.2,   -0.8,   -1.3,   -1.6,   -2.8,   -3.9,   -4.2,   -4.4,   -5.1,  999.0,  999.0,  999.0,  999.0,  999.0,  999.0,  999.0,  999.0,  999.0,  999.0,  999.0,  999.0,  999.0,  999.0,  999.0,  999.0,  999.0,  999.0,  999.0,  999.0,  999.0,  999.0,  999.0,  999.0,  999.0,  999.0,  999.0,  999.0,  999.0,  999.0,  999.0,  999.0,  999.0,  999.0,  999.0,  999.0,  999.0,  999.0,  999.0,  999.0
2005/07/06 18:20,  999.0,   -2.5,   -3.0,   -3.2,   -0.7,    0.3,    0.7,    1.2,   -0.0,    0.7,    0.4,   -0.2,   -0.4,    0.7,    0.3,   -0.3,   -1.2,   -1.8,   -2.6,   -3.6,   -4.1,   -3.7,   -4.5,  999.0,  999.0,  999.0,  999.0,  999.0,  999.0,  999.0,  999.0,  999.0,  999.0,  999.0,  999.0,  999.0,  999.0,  999.0,  999.0,  999.0,  999.0,  999.0,  999.0,  999.0,  999.0,  999.0,  999.0,  999.0,  999.0,  999.0,  999.0,  999.0,  999.0,  999.0,  999.0,  999.0,  999.0,  999.0,  999.0,  999.0,  999.0,  999.0,  999.0
2005/07/06 18:30,  999.0,   -1.7,   -2.6,   -2.2,    0.1,    1.4,    0.6,   -1.9,   -1.6,   -0.5,   -0.4,   -0.5,   -0.4,    0.7,    0.8,    0.4,   -1.4,   -1.8,   -3.7,   -4.0,   -4.0,  999.0,  999.0,  999.0,  999.0,  999.0,  999.0,  999.0,  999.0,  999.0,  999.0,  999.0,  999.0,  999.0,  999.0,  999.0,  999.0,  999.0,  999.0,  999.0,  999.0,  999.0,  999.0,  999.0,  999.0,  999.0,  999.0,  999.0,  999.0,  999.0,  999.0,  999.0,  999.0,  999.0,  999.0,  999.0,  999.0,  999.0,  999.0,  999.0,  999.0,  999.0,  999.0
2005/07/06 18:40,  999.0,   -1.7,   -3.2,   -1.8,    0.8,    1.2,   -0.4,   -1.4,   -1.4,   -0.8,   -0.1,   -0.1,    0.3,    0.5,   -0.1,   -0.8,   -1.7,   -2.5,   -3.4,   -3.6,   -3.7,   -4.2,  999.0,  999.0,  999.0,  999.0,  999.0,  999.0,  999.0,  999.0,  999.0,  999.0,  999.0,  999.0,  999.0,  999.0,  999.0,  999.0,  999.0,  999.0,  999.0,  999.0,  999.0,  999.0,  999.0,  999.0,  999.0,  999.0,  999.0,  999.0,  999.0,  999.0,  999.0,  999.0,  999.0,  999.0,  999.0,  999.0,  999.0,  999.0,  999.0,  999.0,  999.0
2005/07/06 18:50,  999.0,   -1.7,   -3.6,   -1.5,   -0.2,    0.2,   -0.7,   -1.0,   -0.4,   -0.8,   -0.4,   -0.6,    0.1,    0.3,    0.3,   -0.7,   -0.9,   -0.3,   -2.1,   -3.2,   -3.9,   -3.8,  999.0,  999.0,  999.0,  999.0,  999.0,  999.0,  999.0,  999.0,  999.0,  999.0,  999.0,  999.0,  999.0,  999.0,  999.0,  999.0,  999.0,  999.0,  999.0,  999.0,  999.0,  999.0,  999.0,  999.0,  999.0,  999.0,  999.0,  999.0,  999.0,  999.0,  999.0,  999.0,  999.0,  999.0,  999.0,  999.0,  999.0,  999.0,  999.0,  999.0,  999.0
2005/07/06 19:00,  999.0,   -1.3,   -3.8,   -2.9,   -0.7,   -0.4,   -0.0,   -1.2,   -1.5,   -1.1,   -0.3,    0.0,    0.2,    0.8,    0.5,   -0.4,   -1.0,   -1.5,   -2.1,   -2.6,   -3.2,   -2.8,   -3.8,  999.0,  999.0,  999.0,  999.0,  999.0,  999.0,  999.0,  999.0,  999.0,  999.0,  999.0,  999.0,  -55.6,  999.0,  999.0,  999.0,  -55.0,  999.0,  -55.3,  999.0,  -55.5,  -55.4,  999.0,  999.0,  999.0,  999.0,  999.0,  999.0,  999.0,  999.0,  999.0,  999.0,  999.0,  999.0,  999.0,  999.0,  999.0,  999.0,  999.0,  999.0
2005/07/06 19:10,  999.0,   -1.2,   -3.3,   -2.6,   -1.4,   -0.7,   -1.4,   -1.1,   -0.9,   -0.8,   -0.1,   -0.4,    0.4,  999.0,    0.6,    0.4,    0.2,   -1.0,   -1.7,   -1.8,   -2.1,   -2.4,   -3.1,   -4.1,  999.0,  999.0,  999.0,  999.0,  999.0,  999.0,  999.0,  999.0,  999.0,  999.0,  999.0,  999.0,  999.0,  999.0,  999.0,  999.0,  999.0,  999.0,  -55.3,  999.0,  999.0,  999.0,  999.0,  999.0,  -55.2,  999.0,  999.0,  999.0,  -55.0,  999.0,  999.0,  999.0,  -55.4,  999.0,  999.0,  999.0,  -55.3,  999.0,  999.0
2005/07/06 19:20,  999.0,   -1.4,   -3.5,   -1.7,   -1.4,   -1.2,   -1.2,   -0.8,   -0.9,   -0.6,   -0.3,   -0.5,   -0.0,   -0.1,    0.0,   -0.8,   -0.8,   -1.9,   -1.9,   -1.8,   -2.2,   -2.6,  999.0,   -2.6,  999.0,  999.0,  999.0,  999.0,  999.0,  999.0,  999.0,  999.0,  999.0,  999.0,  999.0,  999.0,  999.0,  999.0,  999.0,  999.0,  999.0,  999.0,  999.0,  999.0,  999.0,  999.0,  999.0,  999.0,  999.0,  999.0,  999.0,  999.0,  999.0,  999.0,  999.0,  999.0,  999.0,  999.0,  -55.4,  999.0,  999.0,  999.0,  999.0
2005/07/06 19:30,  999.0,   -2.2,   -3.1,   -1.6,   -1.4,   -1.0,   -0.8,   -0.7,   -0.6,   -0.2,    0.2,   -0.1,   -0.1,   -0.3,    0.5,   -0.6,   -1.4,   -2.6,   -2.7,   -2.7,   -2.2,   -1.7,   -1.6,  999.0,  999.0,  999.0,  999.0,  999.0,  999.0,  999.0,  999.0,  999.0,  999.0,  999.0,  999.0,  999.0,  999.0,  999.0,  999.0,  999.0,  999.0,  999.0,  999.0,  999.0,  999.0,  999.0,  999.0,  999.0,  999.0,  999.0,  -27.6,  999.0,  999.0,  999.0,  999.0,  999.0,  -27.8,  999.0,  999.0,  -55.3,  999.0,  999.0,  999.0
2005/07/06 19:40,  999.0,  999.0,   -3.1,   -1.4,   -1.5,   -1.2,   -0.1,   -0.8,   -0.5,    0.3,    0.0,   -0.2,   -0.8,   -0.9,  999.0,   -1.6,   -1.9,   -2.6,   -2.6,   -2.5,   -1.6,   -1.3,   -2.4,   -3.6,   -4.6,  999.0,  999.0,  999.0,  999.0,  999.0,  999.0,  999.0,  999.0,  999.0,  999.0,  999.0,  999.0,  999.0,  999.0,  999.0,  999.0,  999.0,  999.0,  999.0,  999.0,  999.0,  999.0,   -0.1,  999.0,  999.0,  999.0,  999.0,  999.0,  999.0,  999.0,  999.0,  999.0,  999.0,  999.0,  999.0,  999.0,  999.0,   -0.0
2005/07/06 19:50,  999.0,   -3.4,   -3.6,   -2.1,   -2.1,   -1.7,   -1.1,   -1.4,   -1.8,  999.0,   -0.3,   -0.6,   -0.6,    0.3,    0.1,  999.0,   -0.7,   -1.6,   -2.1,   -1.7,   -1.1,   -1.9,   -2.7,   -3.5,   -5.0,  999.0,  999.0,  999.0,  999.0,  999.0,  999.0,  999.0,  999.0,  999.0,  999.0,  999.0,  999.0,  999.0,  999.0,  999.0,  999.0,  999.0,  999.0,  999.0,  999.0,  999.0,  999.0,  999.0,  999.0,  999.0,  999.0,  999.0,  999.0,  999.0,  999.0,  999.0,  999.0,  999.0,  999.0,  999.0,  999.0,  999.0,  999.0
2005/07/06 20:00,  999.0,  999.0,   -3.9,  999.0,   -1.3,   -1.8,   -1.3,   -1.0,   -1.6,   -1.8,   -0.6,  999.0,   -0.1,   -0.1,   -0.4,   -0.2,   -2.3,  999.0,   -2.8,   -1.9,   -2.2,   -2.8,   -2.6,   -4.1,  999.0,   -6.5,   -8.4,  999.0,  999.0,  999.0,  999.0,  999.0,  999.0,  999.0,  999.0,  999.0,  999.0,  999.0,  999.0,  999.0,  999.0,  999.0,  999.0,  999.0,  999.0,  999.0,  999.0,  -55.2,  999.0,  -52.6,  -51.2,  -55.4,  -55.3,  -55.3,  -55.4,  -55.3,  999.0,  -55.4,  -55.3,  -49.8,  -55.4,  -55.4,  -55.5
2005/07/06 20:10,  999.0,   -2.1,   -2.6,   -0.8,  999.0,   -1.0,   -1.3,   -0.6,   -0.5,   -0.8,   -0.6,   -0.1,   -0.0,   -0.4,   -0.3,   -1.1,   -1.5,  999.0,   -2.5,   -2.1,   -2.7,   -2.3,   -3.1,   -3.6,   -4.9,   -6.3,   -7.7,  999.0,  999.0,  999.0,  999.0,  999.0,  999.0,  999.0,  999.0,  999.0,  999.0,  -55.2,  -55.3,  -55.3,  -55.3,  999.0,  -55.3,  -55.4,  -55.3,  -55.3,  -55.3,  -55.4,  -55.2,  999.0,  -55.4,  999.0,  -55.5,  -55.3,  -55.5,  -55.4,  999.0,  -55.4,  -55.4,  999.0,  -55.4,  -55.4,  -55.5
2005/07/06 20:20,  999.0,   -2.7,   -3.2,   -1.1,   -0.5,   -0.9,   -0.7,   -0.5,   -0.8,    0.7,    0.4,    0.1,   -1.3,   -0.5,   -0.2,   -1.1,   -1.8,   -3.2,   -2.7,   -2.9,   -2.9,   -3.2,   -3.8,   -4.7,   -5.2,   -5.9,   -7.7,  999.0,  999.0,  999.0,  999.0,  999.0,  999.0,  999.0,  999.0,  999.0,  999.0,  -55.3,  -55.2,  -55.2,  -55.2,  999.0,  -55.2,  -55.3,  -55.3,  -55.3,  -55.3,  -55.2,  -55.2,  -55.2,  -55.4,  -55.3,  -55.3,  -55.3,  -55.3,  -55.4,  -55.3,  -55.2,  -55.3,  -55.3,  999.0,  -55.3,  -55.4
2005/07/06 20:30,  999.0,  999.0,   -3.3,   -0.8,   -0.3,   -0.8,   -0.5,   -0.2,    0.6,   -0.5,   -1.9,   -0.4,   -0.0,   -2.0,   -0.2,  999.0,  999.0,   -2.8,   -3.3,   -3.1,   -3.6,   -4.4,   -4.2,   -4.1,   -5.6,   -6.4,  999.0,  999.0,  999.0,  999.0,  999.0,  999.0,  999.0,  -55.3,  999.0,  999.0,  -55.2,  999.0,  -55.2,  -55.2,  999.0,  -55.2,  -55.3,  -55.2,  -55.3,  -55.3,  -55.2,  -55.3,  -55.2,  -55.3,  -55.3,  -55.3,  -55.2,  -55.4,  -55.3,  -55.3,  -55.3,  -55.3,  -55.3,  -55.3,  -55.3,  -55.4,  -55.4
2005/07/06 20:40,  999.0,   -1.7,   -2.3,   -1.1,   -0.3,   -1.0,   -0.7,    0.4,    0.0,    0.1,   -0.5,   -0.8,   -0.3,  999.0,   -0.7,   -1.5,   -1.5,   -2.6,   -3.0,   -3.4,   -4.1,   -4.6,   -3.7,   -3.2,   -5.4,   -6.4,   -6.6,  999.0,  999.0,  999.0,  999.0,  999.0,  999.0,  999.0,  999.0,  999.0,  999.0,  999.0,  -55.3,  -55.3,  -55.3,  -55.2,  -55.2,  -55.3,  -55.2,  -55.3,  -55.2,  -55.2,  -55.3,  -55.3,  999.0,  -55.3,  -55.3,  -55.3,  -55.3,  -55.3,  -55.3,  -55.3,  999.0,  -55.3,  -55.4,  -55.3,  -55.3
2005/07/06 20:50,  999.0,   -1.9,   -2.1,   -1.0,   -0.2,   -0.2,   -0.7,   -0.0,    0.5,    0.4,   -0.3,   -0.2,   -0.6,   -1.3,   -1.0,   -1.8,   -2.4,   -3.2,   -3.2,   -3.5,   -3.6,   -3.3,  999.0,   -1.9,   -3.6,   -4.6,  999.0,  999.0,  999.0,  999.0,  999.0,  999.0,  999.0,  999.0,  999.0,  999.0,  999.0,  999.0,  999.0,  -55.1,  999.0,  -54.9,  999.0,  999.0,  -54.8,  -55.1,  -55.0,  -55.0,  999.0,  999.0,  999.0,  999.0,   -0.1,  -18.4,  -27.4,  -26.9,  -18.6,    0.0,    0.0,   -0.0,  -27.6,  -27.7,  -36.6
2005/07/06 21:00,  999.0,   -2.9,   -2.0,   -0.2,   -0.2,   -0.0,   -0.8,   -0.0,    0.9,    0.3,   -1.5,   -0.1,   -0.4,   -1.1,   -1.0,   -1.3,   -1.5,   -2.0,   -3.1,   -3.5,   -3.5,   -2.7,   -1.8,   -2.3,   -4.1,   -6.1,  999.0,  999.0,  999.0,  999.0,  999.0,  999.0,  999.0,  999.0,   -0.1,  999.0,  999.0,  999.0,  999.0,  999.0,  -55.2,  -46.1,  -46.0,  -48.4,  -41.4,  -48.4,  -55.2,  -55.3,  -55.2,  -46.1,  -46.0,  -41.4,  -36.8,  -41.4,  -27.7,  -27.7,  -55.3,  -36.9,  -27.5,  -41.5,  -48.4,  -41.5,  -48.4
2005/07/06 21:10,  999.0,  999.0,   -1.3,   -0.2,    0.4,   -0.6,   -0.9,    0.8,    0.2,   -0.3,   -0.7,   -0.7,  999.0,   -1.2,   -1.1,   -1.1,   -1.3,   -1.5,   -1.3,   -2.2,   -1.6,   -0.7,   -1.8,   -2.3,   -4.2,   -5.7,   -7.0,   -7.4,   -6.7,  999.0,  999.0,  999.0,  999.0,  999.0,  999.0,  999.0,  999.0,  999.0,  999.0,  999.0,  -46.0,  -27.5,  -45.9,  -36.8,  -46.1,  999.0,  -46.0,  -55.3,  999.0,  -46.0,  -55.2,  -55.3,  -46.0,  -55.3,  -36.9,  -41.5,  -55.5,  -46.1,  -36.7,  -27.6,  -27.7,  -36.9,  -36.9
2005/07/06 21:20,  999.0,   -3.1,   -0.4,   -0.6,   -0.7,   -1.0,   -1.3,    0.3,    0.3,   -1.3,   -1.3,   -0.5,   -0.5,   -0.7,   -1.2,   -1.0,   -1.6,   -2.6,   -3.2,   -2.6,   -1.5,   -1.6,   -1.9,   -3.1,   -4.4,   -5.5,   -6.7,  999.0,  999.0,  999.0,  999.0,  999.0,  999.0,  999.0,  999.0,  -54.9,  999.0,  -54.9,  -55.1,  999.0,  -55.2,  -55.2,  999.0,  -55.2,  -54.6,  -54.8,  999.0,  -54.7,  -55.1,  -54.9,  -54.8,  -55.0,  -55.1,  -55.1,  -55.3,  -55.0,  -55.3,  -55.3,  -55.3,  -55.1,  -55.3,  999.0,  -55.2
2005/07/06 21:30,  999.0,   -2.4,   -1.1,   -0.3,   -0.3,    0.1,   -1.0,   -0.5,   -0.6,   -0.7,  999.0,  999.0,  999.0,    0.1,   -0.0,   -1.0,   -1.7,   -2.3,   -3.4,   -3.1,   -2.1,  999.0,   -2.1,   -3.3,   -4.6,   -6.6,  999.0,  999.0,  999.0,  999.0,  999.0,  999.0,  999.0,  999.0,  999.0,  -54.7,  -55.1,  -54.9,  -55.0,  -55.1,  -54.4,  -54.8,  -54.8,  -55.2,  999.0,  -55.0,  999.0,  -54.9,  -54.9,  -55.2,  -54.8,  -54.8,  -55.2,  -55.0,  -55.1,  -54.4,  -54.8,  -54.8,  -55.3,  -55.1,  -55.2,  -55.3,  -54.9
2005/07/06 21:40,  999.0,   -1.7,   -0.4,    0.6,    0.4,    0.5,   -0.8,   -0.6,   -0.5,   -0.8,  999.0,    0.2,    0.0,  999.0,   -0.2,    0.4,   -1.4,   -1.9,   -2.6,   -2.7,   -2.6,   -2.4,   -2.4,   -3.8,   -5.6,   -6.6,   -7.1,  999.0,  999.0,  999.0,  999.0,  999.0,  999.0,  999.0,  999.0,  -55.2,  999.0,  -55.1,  -55.2,  -55.1,  -54.8,  -54.9,  -55.2,  -55.2,  -54.9,  -55.0,  -55.2,  -55.2,  -55.2,  -55.2,  -55.2,  -55.1,  -55.1,  -55.3,  -55.1,  -55.1,  -55.1,  -55.1,  -54.9,  -55.2,  -55.2,  -54.8,  -55.2
2005/07/06 21:50,  999.0,  999.0,    0.3,    0.6,    0.6,  999.0,    0.0,    0.0,   -0.9,   -0.3,  999.0,  999.0,    0.0,   -0.4,  999.0,   -0.8,   -1.5,  999.0,   -3.0,   -2.4,   -2.4,   -3.3,   -4.4,  999.0,  999.0,   -7.2,  999.0,  999.0,  999.0,  999.0,  999.0,  999.0,  999.0,  -55.1,  -55.0,  999.0,  -55.2,  -54.9,  999.0,  -55.2,  -54.8,  -54.9,  999.0,  -54.8,  -55.3,  -55.2,  -54.9,  -55.2,  999.0,  -55.0,  -54.8,  -55.1,  -55.0,  999.0,  999.0,  -55.0,  -54.9,  -55.1,  -55.0,  -54.9,  -55.1,  -54.9,  -55.3
2005/07/06 22:00,  999.0,   -2.0,   -0.6,   -0.2,    0.1,   -0.5,   -0.9,   -1.4,   -1.5,   -1.2,  999.0,   -0.6,   -0.4,   -0.2,   -0.3,   -1.7,   -2.4,   -3.2,   -2.5,   -2.7,   -1.6,   -2.2,  999.0,  999.0,  999.0,  999.0,  999.0,  999.0,  999.0,  999.0,  999.0,  999.0,  -54.9,  -54.9,  -54.9,  -55.0,  -54.7,  -55.1,  -55.2,  -55.1,  -55.0,  -55.1,  -54.7,  -55.1,  -55.1,  -55.0,  -55.1,  -55.1,  -55.0,  -55.2,  -55.0,  -55.2,  -55.2,  -55.2,  -55.2,  -55.2,  -55.2,  -54.9,  -55.1,  -55.1,  -55.1,  -55.4,  -55.2
2005/07/06 22:10,  999.0,   -1.1,   -1.2,    0.0,   -1.2,   -0.4,   -0.5,    0.2,   -0.4,   -1.1,    0.0,   -0.1,  999.0,   -1.0,   -1.1,   -0.9,   -1.0,   -1.7,   -2.1,   -2.1,  999.0,  999.0,   -2.1,  999.0,  999.0,  999.0,  999.0,  999.0,  999.0,  999.0,  999.0,  999.0,  999.0,  999.0,  999.0,  -18.8,  -27.9,  -55.2,  -41.5,  -28.0,  -37.8,  -33.3,  -24.1,  -24.3,  -18.6,  -30.6,  -32.3,  -38.2,  -20.9,  -27.6,  -24.2,  -27.6,  -32.3,  -23.8,  -21.1,  -27.6,  -14.5,  -27.6,  -20.5,  -33.1,   -0.1,  -27.6,  -27.7
2005/07/06 22:20,  999.0,   -1.5,   -1.0,   -0.8,   -1.1,   -0.4,    0.3,    0.1,   -0.5,   -0.5,   -0.6,   -0.3,   -0.7,  999.0,   -0.9,   -1.7,   -2.6,   -2.9,   -2.7,   -2.1,  999.0,  999.0,  999.0,  999.0,  999.0,  999.0,  999.0,  999.0,  999.0,  999.0,   54.9,  999.0,  999.0,   55.0,   54.9,  999.0,   55.1,   55.1,   55.1,   55.0,   55.2,   55.1,   55.2,   54.9,   55.2,   55.2,  999.0,  999.0,  999.0,  999.0,  999.0,   55.2,   55.1,   55.1,   55.1,  999.0,   55.2,   55.2,   55.2,   55.2,  999.0,   55.3,   55.0
2005/07/06 22:30,  999.0,   -1.7,   -1.2,   -0.3,   -0.9,   -0.7,    0.6,    0.8,    0.2,   -0.4,   -1.0,   -0.6,   -0.5,   -1.1,   -1.3,   -2.6,   -3.4,   -2.1,  999.0,  999.0,  999.0,  999.0,  999.0,  999.0,  999.0,  999.0,  999.0,  999.0,   54.9,   55.1,   55.2,   55.0,   55.2,   55.2,   55.1,   55.1,   55.2,   55.1,   55.1,   55.2,   55.1,   55.2,   55.2,   55.2,   55.2,   55.2,   55.2,   55.1,   55.2,   55.2,   55.2,   55.2,   55.2,   55.3,   55.2,   55.2,   55.3,   55.2,   55.2,   55.3,   55.2,   55.3,   55.1
2005/07/06 22:40,  999.0,   -1.9,   -0.2,    0.1,   -0.9,    0.2,    0.5,    1.2,    0.7,    0.0,   -0.8,   -1.0,   -1.3,   -0.9,   -1.6,   -2.3,   -2.7,   -3.0,   -2.6,   -3.0,   -3.7,  999.0,  999.0,  999.0,  999.0,  999.0,  999.0,  999.0,  999.0,  999.0,  999.0,  999.0,  999.0,  999.0,  999.0,  999.0,   54.8,   55.1,   54.4,   54.9,   54.8,   54.9,   55.1,   55.0,   54.7,   54.9,   54.8,   55.2,   54.6,   54.7,   54.4,   54.7,   54.6,   54.6,   54.8,   55.2,   55.3,  999.0,  999.0,   55.2,  999.0,   55.4,   55.0
2005/07/06 22:50,  999.0,   -2.3,   -0.4,    0.9,   -0.4,    0.4,    0.8,    1.1,    0.6,    0.0,   -0.6,   -1.1,   -1.4,   -1.6,   -1.6,   -2.1,   -3.2,   -3.4,   -3.5,   -4.3,   -4.7,  999.0,  999.0,  999.0,  999.0,  999.0,  999.0,  999.0,  999.0,  999.0,  999.0,  999.0,  999.0,  999.0,  999.0,  999.0,  999.0,  999.0,    0.5,  999.0,  999.0,   27.6,   38.7,   41.2,   34.6,   37.2,   41.3,   44.1,   34.5,   36.9,   38.6,   55.2,   34.5,   27.8,   55.2,   55.1,   36.8,   -0.3,  999.0,  999.0,  999.0,   55.1,   41.4
2005/07/06 23:00,  999.0,   -2.2,   -0.7,   -0.4,    0.5,    0.3,    0.5,    0.5,    0.2,   -0.6,   -1.1,   -1.4,   -1.3,   -1.5,   -1.5,   -2.0,   -2.5,   -3.3,  999.0,  999.0,   -4.0,  999.0,  999.0,  999.0,  999.0,  999.0,  999.0,  999.0,  999.0,  999.0,  999.0,  999.0,  999.0,  999.0,  999.0,  999.0,   46.0,   34.4,   34.6,   55.1,   27.6,   36.8,   34.6,   27.7,   34.6,   34.6,   46.0,   46.0,   24.2,   27.6,   36.8,   34.6,   36.7,   46.0,   55.3,   46.0,   46.1,   34.7,   32.2,   41.5,   45.9,   46.1,  999.0
2005/07/06 23:10,  999.0,   -2.0,   -0.2,   -0.4,    0.3,   -0.2,    0.0,    0.7,    0.3,   -0.6,   -1.2,   -1.1,   -1.4,   -1.9,   -1.9,   -2.5,   -3.1,   -3.7,   -4.3,   -4.1,  999.0,  999.0,  999.0,  999.0,  999.0,  999.0,  999.0,  -54.9,  999.0,  -55.1,  999.0,  -55.0,  -54.9,  -55.2,  -55.1,  -55.2,  999.0,   -0.3,  -27.5,  -18.4,  999.0,  -27.5,  -55.2,  -27.7,  -13.9,   -9.2,  -27.7,  -13.9,  -18.3,  -20.7,  -27.7,  -55.3,  999.0,  -18.5,  -18.3,   -9.2,   -0.1,  -20.8,   -9.3,  -20.7,   -0.1,  -27.7,    0.1
2005/07/06 23:20,  999.0,   -2.6,   -0.8,   -0.5,   -0.2,    0.2,   -0.2,    0.4,  999.0,   -0.6,   -1.3,   -1.5,   -1.3,   -1.8,  999.0,   -2.8,  999.0,   -4.0,   -4.1,  999.0,  999.0,  999.0,  999.0,  999.0,  999.0,  -55.1,  -55.2,  -55.2,  -55.2,  -55.3,  -55.1,  -55.2,  -55.2,  -55.2,  -55.2,  -55.1,  -55.2,  -55.0,  -55.2,  -55.2,  -55.1,  -55.2,  -55.2,  -55.2,  -55.2,  -55.3,  -55.2,  -55.2,  -55.1,  -55.2,  -55.2,  -55.2,  -55.3,  -55.2,  -55.3,  -55.3,  -55.3,  -55.2,  -55.3,  -55.2,  -55.4,  -55.3,  -55.4
2005/07/06 23:30,  999.0,   -1.9,   -0.0,   -0.0,    0.7,   -0.2,   -0.4,    0.3,    0.3,   -0.9,   -1.4,   -1.4,   -1.6,   -1.4,   -2.3,   -3.0,   -3.8,  999.0,   -4.6,  999.0,  999.0,  999.0,  999.0,  999.0,  999.0,  999.0,  999.0,  -54.9,  -55.1,  -55.1,  -55.2,  -55.2,  -55.1,  -55.1,  -55.3,  -55.1,  -55.2,  -55.0,  -55.2,  -55.2,  -55.2,  -55.2,  -55.1,  -55.2,  -55.3,  -55.2,  -55.2,  -55.3,  -55.2,  -55.2,  -55.3,  -55.2,  -55.2,  -55.2,  -55.3,  -55.2,  -55.2,  -55.3,  -55.3,  -55.4,  -55.4,  -55.2,  -55.3
2005/07/06 23:40,  999.0,   -2.5,   -0.2,    0.7,    0.9,    0.9,    0.3,   -0.4,    0.2,    0.0,   -0.6,   -0.8,   -1.3,   -1.7,   -2.2,   -2.8,   -3.7,   -4.5,   -4.0,   -4.4,  999.0,  999.0,  999.0,  999.0,  999.0,  999.0,  -54.2,  -54.9,  -55.0,  -55.2,  -55.1,  -55.1,  -55.2,  -55.0,  -55.0,  -55.2,  -55.1,  -55.2,  -55.2,  -55.1,  -55.1,  -55.0,  -55.0,  -55.1,  -55.2,  -55.1,  -55.3,  -55.2,  -55.0,  -55.0,  -55.1,  -55.2,  -55.2,  -55.2,  -55.3,  -55.2,  -55.1,  -55.2,  -55.1,  -55.2,  -55.1,  -55.3,  -55.4
2005/07/06 23:50,  999.0,   -2.3,    0.3,    1.1,    0.4,    0.1,   -0.3,   -0.6,   -0.9,   -0.2,  999.0,   -1.1,  999.0,   -1.6,   -1.9,   -3.0,   -4.1,  999.0,   -5.5,   -5.8,  999.0,  999.0,  999.0,  999.0,  999.0,  999.0,  -55.1,  -55.1,  -55.0,  -55.1,  -55.2,  -55.1,  -54.9,  -55.3,  -55.1,  -55.1,  -54.9,  -55.0,  -55.1,  -55.0,  -55.2,  -55.0,  -55.0,  -55.1,  -55.1,  -55.0,  -55.2,  -55.2,  -55.1,  -55.3,  -55.2,  -55.2,  -55.1,  -55.2,  -55.3,  -55.3,  -55.3,  -55.3,  -55.3,  -55.3,  -55.5,  -55.3,  -55.3
